| time (UTC) | temp F | wind direction | speed MPH | gust MPH | rain 1hr in | rain 24hr in | rain mn in | humidity % | barometer mb |
| 20260905012906 | 85 | 131 | 4.0 | 9.0 | 0.00 | 0.01 | 0.01 | 63 | 1012.0 |
| 20260905012806 | 85 | 131 | 5.0 | 9.0 | 0.00 | 0.01 | 0.01 | 63 | 1011.9 |
| 20260905012605 | 85 | 131 | 5.0 | 9.0 | 0.00 | 0.01 | 0.01 | 62 | 1011.9 |
| 20260905012406 | 86 | 134 | 5.0 | 9.0 | 0.00 | 0.01 | 0.01 | 62 | 1011.9 |
| 20260905012306 | 86 | 136 | 5.0 | 9.0 | 0.00 | 0.01 | 0.01 | 62 | 1011.9 |
| 20260905012206 | 86 | 135 | 5.0 | 9.0 | 0.00 | 0.01 | 0.01 | 62 | 1011.9 |
| 20260905012105 | 86 | 136 | 5.0 | 9.0 | 0.00 | 0.01 | 0.01 | 62 | 1011.8 |
| 20260905011805 | 86 | 139 | 5.0 | 9.0 | 0.00 | 0.01 | 0.01 | 62 | 1011.8 |
| 20260905011605 | 86 | 139 | 4.0 | 9.0 | 0.00 | 0.01 | 0.01 | 62 | 1011.7 |
| 20260905011307 | 86 | 138 | 4.0 | 9.0 | 0.00 | 0.01 | 0.01 | 62 | 1011.7 |
| 20260905011205 | 86 | 140 | 4.0 | 8.0 | 0.00 | 0.01 | 0.01 | 62 | 1011.7 |
| 20260905011005 | 86 | 143 | 4.0 | 8.0 | 0.00 | 0.01 | 0.01 | 62 | 1011.8 |
| 20260905010906 | 86 | 144 | 4.0 | 8.0 | 0.00 | 0.01 | 0.01 | 62 | 1011.8 |
| 20260905010805 | 86 | 145 | 4.0 | 9.0 | 0.00 | 0.01 | 0.01 | 62 | 1011.8 |
| 20260905010706 | 86 | 147 | 4.0 | 9.0 | 0.00 | 0.01 | 0.01 | 62 | 1011.8 |
| 20260905010605 | 86 | 145 | 5.0 | 12.0 | 0.00 | 0.01 | 0.01 | 62 | 1011.8 |
| 20260905010506 | 86 | 146 | 5.0 | 12.0 | 0.00 | 0.01 | 0.01 | 62 | 1011.9 |
| 20260905010405 | 86 | 146 | 5.0 | 12.0 | 0.00 | 0.01 | 0.01 | 61 | 1011.7 |
| 20260905010306 | 86 | 145 | 5.0 | 12.0 | 0.00 | 0.01 | 0.01 | 61 | 1011.7 |
| 20260905010206 | 86 | 144 | 5.0 | 12.0 | 0.00 | 0.01 | 0.01 | 60 | 1011.7 |
| 20260905010105 | 86 | 143 | 6.0 | 12.0 | 0.00 | 0.01 | 0.01 | 60 | 1011.7 |
| 20260905010006 | 86 | 145 | 6.0 | 15.0 | 0.00 | 0.01 | 0.01 | 60 | 1011.7 |
| 20260905005905 | 86 | 143 | 6.0 | 15.0 | 0.00 | 0.01 | 0.01 | 60 | 1011.7 |
| 20260905005807 | 86 | 141 | 6.0 | 15.0 | 0.00 | 0.01 | 0.01 | 60 | 1011.7 |
| 20260905005705 | 86 | 140 | 6.0 | 15.0 | 0.00 | 0.01 | 0.01 | 60 | 1011.6 |
| 20260905005606 | 86 | 142 | 6.0 | 15.0 | 0.00 | 0.01 | 0.01 | 60 | 1011.6 |
| 20260905005406 | 86 | 140 | 6.0 | 15.0 | 0.00 | 0.01 | 0.01 | 60 | 1011.6 |
| 20260905005307 | 86 | 140 | 6.0 | 15.0 | 0.00 | 0.01 | 0.01 | 60 | 1011.6 |
| 20260905005106 | 87 | 141 | 6.0 | 15.0 | 0.00 | 0.01 | 0.01 | 60 | 1011.6 |
| 20260905005005 | 87 | 140 | 6.0 | 12.0 | 0.00 | 0.01 | 0.01 | 60 | 1011.6 |
| 20260905004906 | 87 | 142 | 6.0 | 12.0 | 0.00 | 0.01 | 0.01 | 60 | 1011.6 |
| 20260905004805 | 87 | 143 | 6.0 | 12.0 | 0.00 | 0.01 | 0.01 | 60 | 1011.6 |
| 20260905004706 | 87 | 145 | 6.0 | 12.0 | 0.00 | 0.01 | 0.01 | 60 | 1011.6 |
| 20260905004506 | 87 | 146 | 6.0 | 12.0 | 0.00 | 0.01 | 0.01 | 60 | 1011.6 |
| 20260905004405 | 87 | 147 | 7.0 | 12.0 | 0.00 | 0.01 | 0.01 | 60 | 1011.5 |
| 20260905004306 | 87 | 149 | 7.0 | 12.0 | 0.00 | 0.01 | 0.01 | 60 | 1011.5 |
| 20260905004205 | 87 | 150 | 7.0 | 12.0 | 0.00 | 0.01 | 0.01 | 60 | 1011.6 |
| 20260905004106 | 87 | 149 | 7.0 | 12.0 | 0.00 | 0.01 | 0.01 | 60 | 1011.5 |
| 20260905004005 | 87 | 149 | 7.0 | 13.0 | 0.00 | 0.01 | 0.01 | 60 | 1011.5 |
| 20260905003906 | 87 | 149 | 8.0 | 13.0 | 0.00 | 0.01 | 0.01 | 59 | 1011.5 |
| 20260905003805 | 87 | 149 | 8.0 | 15.0 | 0.00 | 0.01 | 0.01 | 59 | 1011.5 |
| 20260905003605 | 88 | 149 | 8.0 | 15.0 | 0.00 | 0.01 | 0.01 | 59 | 1011.5 |
| 20260905003506 | 88 | 148 | 8.0 | 15.0 | 0.00 | 0.01 | 0.01 | 59 | 1011.5 |
| 20260905003405 | 88 | 149 | 8.0 | 15.0 | 0.00 | 0.01 | 0.01 | 59 | 1011.6 |
| 20260905003205 | 88 | 147 | 8.0 | 15.0 | 0.00 | 0.01 | 0.01 | 59 | 1011.6 |
| 20260905003107 | 88 | 146 | 8.0 | 15.0 | 0.00 | 0.01 | 0.01 | 59 | 1011.6 |
| 20260905003005 | 88 | 145 | 7.0 | 15.0 | 0.00 | 0.01 | 0.01 | 59 | 1011.6 |
| 20260905002905 | 88 | 143 | 7.0 | 15.0 | 0.00 | 0.01 | 0.01 | 58 | 1011.5 |
| 20260905002805 | 88 | 142 | 7.0 | 15.0 | 0.00 | 0.01 | 0.01 | 58 | 1011.5 |
| 20260905002705 | 88 | 143 | 8.0 | 15.0 | 0.00 | 0.01 | 0.01 | 58 | 1011.5 |
| 20260905002505 | 88 | 141 | 8.0 | 17.0 | 0.00 | 0.01 | 0.01 | 58 | 1011.5 |
| 20260905002406 | 88 | 140 | 9.0 | 17.0 | 0.00 | 0.01 | 0.01 | 58 | 1011.4 |
| 20260905002306 | 88 | 139 | 9.0 | 19.0 | 0.00 | 0.01 | 0.01 | 58 | 1011.4 |
| 20260905002206 | 88 | 136 | 9.0 | 19.0 | 0.00 | 0.01 | 0.01 | 58 | 1011.4 |
| 20260905002105 | 88 | 138 | 9.0 | 19.0 | 0.00 | 0.01 | 0.01 | 57 | 1011.3 |
| 20260905002006 | 88 | 137 | 9.0 | 19.0 | 0.00 | 0.01 | 0.01 | 57 | 1011.3 |
| 20260905001905 | 88 | 137 | 10.0 | 19.0 | 0.00 | 0.01 | 0.01 | 57 | 1011.3 |
| 20260905001806 | 89 | 137 | 10.0 | 19.0 | 0.00 | 0.01 | 0.01 | 57 | 1011.3 |
| 20260905001706 | 89 | 136 | 10.0 | 19.0 | 0.00 | 0.01 | 0.01 | 57 | 1011.3 |
| 20260905001606 | 89 | 133 | 10.0 | 19.0 | 0.00 | 0.01 | 0.01 | 57 | 1011.3 |
| 20260905001505 | 89 | 133 | 10.0 | 19.0 | 0.00 | 0.01 | 0.01 | 55 | 1011.2 |
| 20260905001405 | 89 | 132 | 10.0 | 19.0 | 0.00 | 0.01 | 0.01 | 55 | 1011.3 |
| 20260905001306 | 89 | 132 | 11.0 | 19.0 | 0.00 | 0.01 | 0.01 | 55 | 1011.2 |
| 20260905001206 | 89 | 130 | 11.0 | 19.0 | 0.00 | 0.01 | 0.01 | 55 | 1011.2 |
| 20260905001105 | 89 | 127 | 11.0 | 19.0 | 0.00 | 0.01 | 0.01 | 55 | 1011.2 |
| 20260905001006 | 89 | 127 | 12.0 | 19.0 | 0.00 | 0.01 | 0.01 | 55 | 1011.2 |
| 20260905000905 | 90 | 126 | 11.0 | 19.0 | 0.00 | 0.01 | 0.01 | 55 | 1011.2 |
| 20260905000805 | 90 | 125 | 11.0 | 19.0 | 0.00 | 0.01 | 0.01 | 54 | 1011.2 |
| 20260905000706 | 90 | 125 | 11.0 | 19.0 | 0.00 | 0.01 | 0.01 | 54 | 1011.2 |
| 20260905000406 | 90 | 123 | 12.0 | 19.0 | 0.00 | 0.01 | 0.01 | 52 | 1011.1 |
| 20260905000305 | 90 | 121 | 11.0 | 19.0 | 0.00 | 0.01 | 0.01 | 51 | 1011.1 |
| 20260905000206 | 90 | 120 | 11.0 | 19.0 | 0.00 | 0.01 | 0.01 | 49 | 1011.1 |
| 20260905000105 | 90 | 120 | 11.0 | 19.0 | 0.00 | 0.01 | 0.01 | 49 | 1011.1 |
| 20260904235905 | 91 | 118 | 11.0 | 18.0 | 0.00 | 0.01 | 0.01 | 48 | 1011.0 |
| 20260904235805 | 91 | 115 | 10.0 | 18.0 | 0.00 | 0.01 | 0.01 | 48 | 1011.0 |
| 20260904235706 | 91 | 113 | 10.0 | 17.0 | 0.00 | 0.01 | 0.01 | 48 | 1011.0 |
| 20260904235605 | 91 | 114 | 10.0 | 17.0 | 0.00 | 0.01 | 0.01 | 48 | 1011.0 |
| 20260904235506 | 91 | 116 | 9.0 | 17.0 | 0.00 | 0.01 | 0.01 | 48 | 1011.0 |
| 20260904235406 | 91 | 120 | 9.0 | 17.0 | 0.00 | 0.01 | 0.01 | 48 | 1010.9 |
| 20260904235306 | 91 | 127 | 9.0 | 17.0 | 0.00 | 0.01 | 0.01 | 48 | 1010.9 |
| 20260904235206 | 92 | 130 | 9.0 | 17.0 | 0.00 | 0.01 | 0.01 | 48 | 1010.9 |
| 20260904235106 | 92 | 132 | 9.0 | 17.0 | 0.00 | 0.01 | 0.01 | 48 | 1010.9 |
| 20260904235005 | 92 | 133 | 9.0 | 17.0 | 0.00 | 0.01 | 0.01 | 48 | 1010.8 |
| 20260904234906 | 92 | 135 | 9.0 | 17.0 | 0.00 | 0.01 | 0.01 | 47 | 1010.8 |
| 20260904234805 | 92 | 139 | 9.0 | 16.0 | 0.00 | 0.01 | 0.01 | 47 | 1010.8 |
| 20260904234605 | 92 | 139 | 8.0 | 16.0 | 0.00 | 0.01 | 0.01 | 47 | 1010.8 |
| 20260904234405 | 93 | 134 | 7.0 | 16.0 | 0.00 | 0.01 | 0.01 | 47 | 1010.8 |
| 20260904234305 | 93 | 133 | 7.0 | 16.0 | 0.00 | 0.01 | 0.01 | 47 | 1010.9 |
| 20260904234205 | 93 | 133 | 8.0 | 16.0 | 0.00 | 0.01 | 0.01 | 47 | 1010.9 |
| 20260904234106 | 93 | 136 | 8.0 | 16.0 | 0.00 | 0.01 | 0.01 | 47 | 1010.8 |
| 20260904234005 | 93 | 138 | 7.0 | 16.0 | 0.00 | 0.01 | 0.01 | 46 | 1010.8 |
| 20260904233905 | 93 | 141 | 7.0 | 15.0 | 0.00 | 0.01 | 0.01 | 46 | 1010.8 |
| 20260904233806 | 93 | 145 | 7.0 | 15.0 | 0.00 | 0.01 | 0.01 | 47 | 1010.9 |
| 20260904233705 | 93 | 146 | 7.0 | 15.0 | 0.00 | 0.01 | 0.01 | 47 | 1010.8 |
| 20260904233606 | 93 | 149 | 7.0 | 15.0 | 0.00 | 0.01 | 0.01 | 47 | 1010.8 |
| 20260904233505 | 93 | 153 | 8.0 | 15.0 | 0.00 | 0.01 | 0.01 | 47 | 1010.8 |
| 20260904233405 | 93 | 154 | 8.0 | 15.0 | 0.00 | 0.01 | 0.01 | 47 | 1010.8 |
| 20260904233305 | 93 | 153 | 8.0 | 15.0 | 0.00 | 0.01 | 0.01 | 47 | 1010.8 |
| 20260904233105 | 93 | 147 | 8.0 | 15.0 | 0.00 | 0.01 | 0.01 | 47 | 1010.8 |
| 20260904233006 | 93 | 145 | 8.0 | 15.0 | 0.00 | 0.01 | 0.01 | 47 | 1010.8 |
| 20260904232905 | 93 | 143 | 8.0 | 15.0 | 0.00 | 0.01 | 0.01 | 47 | 1010.8 |
| 20260904232805 | 92 | 140 | 8.0 | 15.0 | 0.00 | 0.01 | 0.01 | 47 | 1010.8 |
| 20260904232706 | 92 | 139 | 8.0 | 15.0 | 0.00 | 0.01 | 0.01 | 47 | 1010.8 |
| 20260904232606 | 92 | 138 | 8.0 | 15.0 | 0.00 | 0.01 | 0.01 | 47 | 1010.8 |
| 20260904232405 | 92 | 132 | 8.0 | 15.0 | 0.00 | 0.01 | 0.01 | 46 | 1010.8 |
| 20260904232307 | 92 | 133 | 7.0 | 15.0 | 0.00 | 0.01 | 0.01 | 46 | 1010.8 |
| 20260904232205 | 93 | 133 | 7.0 | 14.0 | 0.00 | 0.01 | 0.01 | 46 | 1010.8 |
| 20260904232105 | 93 | 133 | 7.0 | 14.0 | 0.00 | 0.01 | 0.01 | 46 | 1010.8 |
| 20260904232005 | 93 | 134 | 7.0 | 14.0 | 0.00 | 0.01 | 0.01 | 46 | 1010.8 |
| 20260904231806 | 93 | 134 | 7.0 | 14.0 | 0.00 | 0.01 | 0.01 | 45 | 1010.8 |
| 20260904231705 | 93 | 134 | 8.0 | 14.0 | 0.00 | 0.01 | 0.01 | 45 | 1010.8 |
| 20260904231506 | 93 | 134 | 7.0 | 14.0 | 0.00 | 0.01 | 0.01 | 44 | 1010.8 |
| 20260904231405 | 94 | 132 | 7.0 | 14.0 | 0.00 | 0.01 | 0.01 | 44 | 1010.8 |
| 20260904231205 | 94 | 130 | 7.0 | 14.0 | 0.00 | 0.01 | 0.01 | 44 | 1010.8 |
| 20260904231107 | 94 | 129 | 8.0 | 14.0 | 0.00 | 0.01 | 0.01 | 44 | 1010.8 |
| 20260904231006 | 94 | 128 | 8.0 | 16.0 | 0.00 | 0.01 | 0.01 | 44 | 1010.8 |
| 20260904230905 | 94 | 128 | 8.0 | 16.0 | 0.00 | 0.01 | 0.01 | 44 | 1010.9 |
| 20260904230806 | 94 | 127 | 8.0 | 16.0 | 0.00 | 0.01 | 0.01 | 44 | 1010.9 |
| 20260904230705 | 94 | 123 | 8.0 | 16.0 | 0.00 | 0.01 | 0.01 | 43 | 1010.8 |
| 20260904230306 | 94 | 120 | 8.0 | 16.0 | 0.00 | 0.01 | 0.01 | 43 | 1010.8 |
| 20260904230205 | 94 | 118 | 8.0 | 16.0 | 0.00 | 0.01 | 0.01 | 43 | 1010.8 |
| 20260904230105 | 95 | 119 | 8.0 | 16.0 | 0.00 | 0.01 | 0.01 | 44 | 1010.8 |
| 20260904230005 | 95 | 116 | 7.0 | 13.0 | 0.00 | 0.01 | 0.01 | 44 | 1010.8 |
| 20260904225905 | 94 | 114 | 7.0 | 13.0 | 0.00 | 0.01 | 0.01 | 44 | 1010.8 |
| 20260904225805 | 94 | 115 | 7.0 | 13.0 | 0.00 | 0.01 | 0.01 | 44 | 1010.8 |
| 20260904225706 | 94 | 119 | 8.0 | 13.0 | 0.00 | 0.01 | 0.01 | 44 | 1010.8 |
| 20260904225506 | 94 | 122 | 9.0 | 17.0 | 0.00 | 0.01 | 0.01 | 44 | 1010.8 |
| 20260904225306 | 95 | 121 | 9.0 | 17.0 | 0.00 | 0.01 | 0.01 | 44 | 1010.8 |
| 20260904225206 | 95 | 122 | 9.0 | 17.0 | 0.00 | 0.01 | 0.01 | 44 | 1010.9 |
| 20260904225105 | 95 | 120 | 9.0 | 17.0 | 0.00 | 0.01 | 0.01 | 44 | 1010.8 |
| 20260904225006 | 95 | 119 | 10.0 | 17.0 | 0.00 | 0.01 | 0.01 | 44 | 1010.8 |
| 20260904224906 | 94 | 118 | 10.0 | 17.0 | 0.00 | 0.01 | 0.01 | 44 | 1010.9 |
| 20260904224805 | 95 | 117 | 10.0 | 17.0 | 0.00 | 0.01 | 0.01 | 43 | 1010.9 |
| 20260904224705 | 95 | 116 | 10.0 | 17.0 | 0.00 | 0.01 | 0.01 | 43 | 1010.9 |
| 20260904224605 | 95 | 118 | 10.0 | 17.0 | 0.00 | 0.01 | 0.01 | 43 | 1010.9 |
| 20260904224505 | 95 | 119 | 10.0 | 17.0 | 0.00 | 0.01 | 0.01 | 43 | 1010.8 |
| 20260904224405 | 95 | 119 | 9.0 | 17.0 | 0.00 | 0.01 | 0.01 | 43 | 1010.9 |
| 20260904224305 | 95 | 118 | 9.0 | 17.0 | 0.00 | 0.01 | 0.01 | 42 | 1010.8 |
| 20260904224206 | 95 | 118 | 9.0 | 17.0 | 0.00 | 0.01 | 0.01 | 42 | 1010.8 |
| 20260904224105 | 95 | 119 | 9.0 | 17.0 | 0.00 | 0.01 | 0.01 | 41 | 1010.7 |
| 20260904223905 | 95 | 128 | 8.0 | 14.0 | 0.00 | 0.01 | 0.01 | 41 | 1010.7 |
| 20260904223805 | 95 | 131 | 7.0 | 14.0 | 0.00 | 0.01 | 0.01 | 41 | 1010.7 |
| 20260904223705 | 95 | 133 | 7.0 | 14.0 | 0.00 | 0.01 | 0.01 | 41 | 1010.7 |
| 20260904223605 | 95 | 134 | 6.0 | 14.0 | 0.00 | 0.01 | 0.01 | 41 | 1010.8 |
| 20260904223206 | 96 | 146 | 5.0 | 14.0 | 0.00 | 0.01 | 0.01 | 42 | 1010.8 |
| 20260904223105 | 96 | 153 | 5.0 | 12.0 | 0.00 | 0.01 | 0.01 | 42 | 1010.8 |
| 20260904223006 | 96 | 156 | 5.0 | 10.0 | 0.00 | 0.01 | 0.01 | 41 | 1010.8 |
| 20260904222905 | 96 | 155 | 5.0 | 10.0 | 0.00 | 0.01 | 0.01 | 42 | 1010.9 |
| 20260904222705 | 96 | 155 | 6.0 | 14.0 | 0.00 | 0.01 | 0.01 | 41 | 1010.9 |
| 20260904222605 | 96 | 158 | 6.0 | 14.0 | 0.00 | 0.01 | 0.01 | 41 | 1010.9 |
| 20260904222505 | 96 | 159 | 6.0 | 14.0 | 0.00 | 0.01 | 0.01 | 41 | 1010.9 |
| 20260904222405 | 96 | 158 | 7.0 | 14.0 | 0.00 | 0.01 | 0.01 | 41 | 1010.9 |
| 20260904222306 | 96 | 154 | 7.0 | 14.0 | 0.00 | 0.01 | 0.01 | 41 | 1011.0 |
| 20260904222205 | 96 | 148 | 7.0 | 14.0 | 0.00 | 0.01 | 0.01 | 41 | 1011.0 |
| 20260904222005 | 96 | 145 | 6.0 | 14.0 | 0.00 | 0.01 | 0.01 | 41 | 1010.9 |
| 20260904221905 | 96 | 142 | 6.0 | 14.0 | 0.00 | 0.01 | 0.01 | 41 | 1011.0 |
| 20260904221805 | 96 | 143 | 6.0 | 14.0 | 0.00 | 0.01 | 0.01 | 41 | 1010.9 |
| 20260904221705 | 96 | 140 | 6.0 | 13.0 | 0.00 | 0.01 | 0.01 | 41 | 1010.9 |
| 20260904221606 | 96 | 137 | 5.0 | 12.0 | 0.00 | 0.01 | 0.01 | 41 | 1010.9 |
| 20260904221505 | 96 | 138 | 6.0 | 12.0 | 0.00 | 0.01 | 0.01 | 41 | 1010.9 |
| 20260904221407 | 96 | 142 | 5.0 | 12.0 | 0.00 | 0.01 | 0.01 | 40 | 1010.9 |
| 20260904221306 | 96 | 148 | 6.0 | 11.0 | 0.00 | 0.01 | 0.01 | 41 | 1010.9 |
| 20260904221205 | 96 | 156 | 6.0 | 11.0 | 0.00 | 0.01 | 0.01 | 40 | 1010.9 |
| 20260904221105 | 96 | 159 | 6.0 | 11.0 | 0.00 | 0.01 | 0.01 | 42 | 1011.0 |
| 20260904220705 | 95 | 150 | 6.0 | 11.0 | 0.00 | 0.01 | 0.01 | 42 | 1010.9 |
| 20260904220606 | 95 | 144 | 6.0 | 11.0 | 0.00 | 0.01 | 0.01 | 42 | 1011.0 |
| 20260904220505 | 95 | 142 | 6.0 | 11.0 | 0.00 | 0.01 | 0.01 | 42 | 1011.0 |
| 20260904220405 | 95 | 139 | 6.0 | 11.0 | 0.00 | 0.01 | 0.01 | 43 | 1011.1 |
| 20260904220306 | 95 | 141 | 6.0 | 11.0 | 0.00 | 0.01 | 0.01 | 43 | 1011.1 |
| 20260904220205 | 95 | 141 | 6.0 | 11.0 | 0.00 | 0.01 | 0.01 | 43 | 1011.1 |
| 20260904220106 | 95 | 145 | 7.0 | 14.0 | 0.00 | 0.01 | 0.01 | 43 | 1011.1 |
| 20260904220006 | 95 | 150 | 7.0 | 14.0 | 0.00 | 0.01 | 0.01 | 43 | 1011.2 |
| 20260904215905 | 95 | 157 | 7.0 | 14.0 | 0.00 | 0.01 | 0.01 | 42 | 1011.1 |
| 20260904215806 | 95 | 157 | 7.0 | 14.0 | 0.00 | 0.01 | 0.01 | 43 | 1011.1 |
| 20260904215705 | 95 | 165 | 7.0 | 14.0 | 0.00 | 0.01 | 0.01 | 43 | 1011.1 |
| 20260904215605 | 95 | 173 | 7.0 | 14.0 | 0.00 | 0.01 | 0.01 | 42 | 1011.1 |
| 20260904215505 | 95 | 175 | 7.0 | 14.0 | 0.00 | 0.01 | 0.01 | 42 | 1011.2 |
| 20260904215405 | 96 | 181 | 7.0 | 14.0 | 0.00 | 0.01 | 0.01 | 41 | 1011.1 |
| 20260904215205 | 96 | 178 | 7.0 | 14.0 | 0.00 | 0.01 | 0.01 | 40 | 1011.2 |
| 20260904215005 | 96 | 183 | 7.0 | 13.0 | 0.00 | 0.01 | 0.01 | 42 | 1011.3 |
| 20260904214905 | 96 | 183 | 7.0 | 13.0 | 0.00 | 0.01 | 0.01 | 42 | 1011.2 |
| 20260904214806 | 96 | 186 | 7.0 | 13.0 | 0.00 | 0.01 | 0.01 | 42 | 1011.3 |
| 20260904214705 | 95 | 186 | 7.0 | 13.0 | 0.00 | 0.01 | 0.01 | 42 | 1011.3 |
| 20260904214605 | 95 | 185 | 7.0 | 13.0 | 0.00 | 0.01 | 0.01 | 42 | 1011.3 |
| 20260904214206 | 95 | 188 | 8.0 | 14.0 | 0.00 | 0.01 | 0.01 | 41 | 1011.3 |
| 20260904214106 | 95 | 188 | 8.0 | 14.0 | 0.00 | 0.01 | 0.01 | 40 | 1011.4 |
| 20260904213905 | 96 | 183 | 8.0 | 14.0 | 0.00 | 0.01 | 0.01 | 39 | 1011.4 |
| 20260904213805 | 96 | 181 | 8.0 | 14.0 | 0.00 | 0.01 | 0.01 | 38 | 1011.4 |
| 20260904213705 | 97 | 183 | 7.0 | 14.0 | 0.00 | 0.01 | 0.01 | 38 | 1011.4 |
| 20260904213605 | 97 | 182 | 7.0 | 14.0 | 0.00 | 0.01 | 0.01 | 38 | 1011.5 |
| 20260904213505 | 97 | 182 | 7.0 | 14.0 | 0.00 | 0.01 | 0.01 | 38 | 1011.4 |
| 20260904213304 | 97 | 183 | 7.0 | 15.0 | 0.00 | 0.01 | 0.01 | 38 | 1011.5 |
| 20260904213206 | 97 | 183 | 7.0 | 15.0 | 0.00 | 0.01 | 0.01 | 38 | 1011.5 |
| 20260904213105 | 97 | 179 | 7.0 | 15.0 | 0.00 | 0.01 | 0.01 | 39 | 1011.5 |
| 20260904212906 | 96 | 181 | 8.0 | 15.0 | 0.00 | 0.01 | 0.01 | 40 | 1011.6 |
| 20260904212705 | 97 | 175 | 8.0 | 15.0 | 0.00 | 0.01 | 0.01 | 39 | 1011.6 |
| 20260904212605 | 97 | 173 | 8.0 | 15.0 | 0.00 | 0.01 | 0.01 | 40 | 1011.7 |
| 20260904212505 | 97 | 171 | 7.0 | 15.0 | 0.00 | 0.01 | 0.01 | 40 | 1011.6 |
| 20260904212405 | 97 | 170 | 7.0 | 15.0 | 0.00 | 0.01 | 0.01 | 40 | 1011.7 |
| 20260904212306 | 97 | 170 | 7.0 | 14.0 | 0.00 | 0.01 | 0.01 | 40 | 1011.7 |
| 20260904212205 | 97 | 169 | 7.0 | 14.0 | 0.00 | 0.01 | 0.01 | 40 | 1011.7 |
| 20260904212106 | 97 | 171 | 7.0 | 14.0 | 0.00 | 0.01 | 0.01 | 40 | 1011.7 |
| 20260904212006 | 96 | 172 | 7.0 | 14.0 | 0.00 | 0.01 | 0.01 | 40 | 1011.8 |
| 20260904211905 | 96 | 172 | 7.0 | 14.0 | 0.00 | 0.01 | 0.01 | 40 | 1011.7 |
| 20260904211806 | 96 | 173 | 7.0 | 11.0 | 0.00 | 0.01 | 0.01 | 40 | 1011.7 |
| 20260904211705 | 97 | 174 | 7.0 | 11.0 | 0.00 | 0.01 | 0.01 | 40 | 1011.7 |
| 20260904211606 | 97 | 176 | 7.0 | 11.0 | 0.00 | 0.01 | 0.01 | 40 | 1011.7 |
| 20260904211505 | 96 | 175 | 7.0 | 11.0 | 0.00 | 0.01 | 0.01 | 40 | 1011.8 |
| 20260904211405 | 96 | 175 | 7.0 | 11.0 | 0.00 | 0.01 | 0.01 | 40 | 1011.7 |
| 20260904211205 | 96 | 172 | 7.0 | 12.0 | 0.00 | 0.01 | 0.01 | 40 | 1011.7 |
| 20260904211105 | 96 | 171 | 7.0 | 12.0 | 0.00 | 0.01 | 0.01 | 40 | 1011.7 |
| 20260904211005 | 96 | 170 | 7.0 | 13.0 | 0.00 | 0.01 | 0.01 | 39 | 1011.7 |
| 20260904210905 | 96 | 172 | 7.0 | 13.0 | 0.00 | 0.01 | 0.01 | 39 | 1011.7 |
| 20260904210706 | 96 | 178 | 7.0 | 13.0 | 0.00 | 0.01 | 0.01 | 40 | 1011.8 |
| 20260904210606 | 96 | 182 | 8.0 | 14.0 | 0.00 | 0.01 | 0.01 | 39 | 1011.7 |
| 20260904210505 | 96 | 182 | 8.0 | 14.0 | 0.00 | 0.01 | 0.01 | 39 | 1011.8 |
| 20260904210405 | 96 | 179 | 8.0 | 14.0 | 0.00 | 0.01 | 0.01 | 39 | 1011.8 |
| 20260904210305 | 96 | 181 | 8.0 | 14.0 | 0.00 | 0.01 | 0.01 | 40 | 1011.8 |
| 20260904210205 | 96 | 181 | 8.0 | 14.0 | 0.00 | 0.01 | 0.01 | 40 | 1011.9 |
| 20260904210006 | 96 | 185 | 8.0 | 14.0 | 0.00 | 0.01 | 0.01 | 40 | 1011.8 |
| 20260904205905 | 96 | 185 | 7.0 | 14.0 | 0.00 | 0.01 | 0.01 | 40 | 1011.9 |
| 20260904205806 | 96 | 181 | 7.0 | 14.0 | 0.00 | 0.01 | 0.01 | 40 | 1011.8 |
| 20260904205705 | 96 | 176 | 6.0 | 14.0 | 0.00 | 0.01 | 0.01 | 40 | 1011.8 |
| 20260904205605 | 96 | 171 | 6.0 | 14.0 | 0.00 | 0.01 | 0.01 | 40 | 1011.8 |
| 20260904205505 | 96 | 170 | 6.0 | 14.0 | 0.00 | 0.01 | 0.01 | 40 | 1011.8 |
| 20260904205405 | 96 | 169 | 6.0 | 14.0 | 0.00 | 0.01 | 0.01 | 40 | 1011.8 |
| 20260904205306 | 96 | 167 | 6.0 | 13.0 | 0.00 | 0.01 | 0.01 | 40 | 1011.8 |
| 20260904205205 | 96 | 165 | 5.0 | 13.0 | 0.00 | 0.01 | 0.01 | 41 | 1011.8 |
| 20260904205105 | 96 | 162 | 5.0 | 13.0 | 0.00 | 0.01 | 0.01 | 41 | 1011.8 |
| 20260904205005 | 96 | 158 | 6.0 | 13.0 | 0.00 | 0.01 | 0.01 | 41 | 1011.8 |
| 20260904204904 | 96 | 158 | 6.0 | 13.0 | 0.00 | 0.01 | 0.01 | 41 | 1011.8 |
| 20260904204705 | 96 | 160 | 6.0 | 13.0 | 0.00 | 0.01 | 0.01 | 41 | 1011.9 |
| 20260904204605 | 96 | 159 | 6.0 | 13.0 | 0.00 | 0.01 | 0.01 | 42 | 1011.9 |
| 20260904204505 | 96 | 156 | 6.0 | 12.0 | 0.00 | 0.01 | 0.01 | 42 | 1011.9 |
| 20260904204405 | 96 | 157 | 6.0 | 12.0 | 0.00 | 0.01 | 0.01 | 42 | 1011.9 |
| 20260904204305 | 96 | 156 | 6.0 | 12.0 | 0.00 | 0.01 | 0.01 | 42 | 1012.0 |
| 20260904204206 | 96 | 156 | 6.0 | 12.0 | 0.00 | 0.01 | 0.01 | 42 | 1012.0 |
| 20260904204105 | 96 | 153 | 6.0 | 12.0 | 0.00 | 0.01 | 0.01 | 42 | 1012.0 |
| 20260904204006 | 96 | 153 | 6.0 | 12.0 | 0.00 | 0.01 | 0.01 | 42 | 1012.1 |
| 20260904203905 | 96 | 151 | 6.0 | 12.0 | 0.00 | 0.01 | 0.01 | 42 | 1012.1 |
| 20260904203805 | 96 | 154 | 6.0 | 12.0 | 0.00 | 0.01 | 0.01 | 43 | 1012.1 |
| 20260904203705 | 96 | 157 | 6.0 | 12.0 | 0.00 | 0.01 | 0.01 | 44 | 1012.1 |
| 20260904203605 | 95 | 161 | 6.0 | 12.0 | 0.00 | 0.01 | 0.01 | 44 | 1012.1 |
| 20260904203507 | 95 | 163 | 7.0 | 12.0 | 0.00 | 0.01 | 0.01 | 44 | 1012.1 |
| 20260904203405 | 96 | 159 | 7.0 | 12.0 | 0.00 | 0.01 | 0.01 | 44 | 1012.1 |
| 20260904203305 | 95 | 161 | 7.0 | 12.0 | 0.00 | 0.01 | 0.01 | 44 | 1012.1 |
| 20260904203205 | 95 | 163 | 7.0 | 12.0 | 0.00 | 0.01 | 0.01 | 44 | 1012.2 |
| 20260904203005 | 95 | 165 | 7.0 | 11.0 | 0.00 | 0.01 | 0.01 | 44 | 1012.2 |
| 20260904202904 | 95 | 167 | 7.0 | 11.0 | 0.00 | 0.01 | 0.01 | 45 | 1012.2 |
| 20260904202805 | 94 | 166 | 8.0 | 13.0 | 0.00 | 0.01 | 0.01 | 45 | 1012.2 |
| 20260904202705 | 94 | 166 | 8.0 | 16.0 | 0.00 | 0.01 | 0.01 | 46 | 1012.3 |
| 20260904202605 | 94 | 166 | 8.0 | 16.0 | 0.00 | 0.01 | 0.01 | 47 | 1012.2 |
| 20260904202505 | 93 | 166 | 8.0 | 16.0 | 0.00 | 0.01 | 0.01 | 47 | 1012.2 |
| 20260904202405 | 93 | 167 | 8.0 | 16.0 | 0.00 | 0.01 | 0.01 | 48 | 1012.2 |
| 20260904202205 | 92 | 163 | 8.0 | 16.0 | 0.00 | 0.01 | 0.01 | 49 | 1012.2 |
| 20260904202105 | 92 | 163 | 8.0 | 16.0 | 0.00 | 0.01 | 0.01 | 49 | 1012.2 |
| 20260904202006 | 92 | 162 | 8.0 | 16.0 | 0.00 | 0.01 | 0.01 | 48 | 1012.2 |
| 20260904201905 | 92 | 161 | 8.0 | 16.0 | 0.00 | 0.01 | 0.01 | 48 | 1012.2 |
| 20260904201805 | 92 | 160 | 8.0 | 16.0 | 0.00 | 0.01 | 0.01 | 48 | 1012.2 |
| 20260904201605 | 92 | 156 | 8.0 | 14.0 | 0.00 | 0.01 | 0.01 | 48 | 1012.2 |
| 20260904201505 | 92 | 154 | 8.0 | 14.0 | 0.00 | 0.01 | 0.01 | 48 | 1012.2 |
| 20260904201405 | 92 | 157 | 8.0 | 17.0 | 0.00 | 0.01 | 0.01 | 48 | 1012.3 |
| 20260904201305 | 92 | 160 | 8.0 | 17.0 | 0.00 | 0.01 | 0.01 | 48 | 1012.3 |
| 20260904201205 | 93 | 162 | 8.0 | 17.0 | 0.00 | 0.01 | 0.01 | 48 | 1012.3 |
| 20260904201105 | 93 | 163 | 8.0 | 17.0 | 0.00 | 0.01 | 0.01 | 48 | 1012.3 |
| 20260904201005 | 93 | 164 | 8.0 | 17.0 | 0.00 | 0.01 | 0.01 | 48 | 1012.3 |
| 20260904200805 | 93 | 164 | 7.0 | 17.0 | 0.00 | 0.01 | 0.01 | 48 | 1012.4 |
| 20260904200706 | 93 | 164 | 8.0 | 17.0 | 0.00 | 0.01 | 0.01 | 47 | 1012.3 |
| 20260904200605 | 93 | 166 | 8.0 | 17.0 | 0.00 | 0.01 | 0.01 | 46 | 1012.3 |
| 20260904200406 | 94 | 162 | 7.0 | 14.0 | 0.00 | 0.01 | 0.01 | 46 | 1012.3 |
| 20260904200206 | 94 | 158 | 8.0 | 14.0 | 0.00 | 0.01 | 0.01 | 46 | 1012.3 |
| 20260904200105 | 94 | 159 | 7.0 | 14.0 | 0.00 | 0.01 | 0.01 | 46 | 1012.3 |
| 20260904200005 | 95 | 162 | 8.0 | 14.0 | 0.00 | 0.01 | 0.01 | 46 | 1012.3 |
| 20260904195906 | 95 | 164 | 7.0 | 14.0 | 0.00 | 0.01 | 0.01 | 45 | 1012.2 |
| 20260904195805 | 95 | 167 | 7.0 | 14.0 | 0.00 | 0.01 | 0.01 | 45 | 1012.4 |
| 20260904195705 | 96 | 168 | 6.0 | 14.0 | 0.00 | 0.01 | 0.01 | 45 | 1012.4 |
| 20260904195505 | 96 | 173 | 6.0 | 13.0 | 0.00 | 0.01 | 0.01 | 45 | 1012.4 |
| 20260904195405 | 96 | 179 | 6.0 | 12.0 | 0.00 | 0.01 | 0.01 | 44 | 1012.3 |
| 20260904195306 | 96 | 185 | 5.0 | 11.0 | 0.00 | 0.01 | 0.01 | 43 | 1012.4 |
| 20260904195206 | 96 | 192 | 5.0 | 10.0 | 0.00 | 0.01 | 0.01 | 44 | 1012.4 |
| 20260904195105 | 96 | 193 | 5.0 | 10.0 | 0.00 | 0.01 | 0.01 | 44 | 1012.4 |
| 20260904195005 | 96 | 189 | 5.0 | 10.0 | 0.00 | 0.01 | 0.01 | 44 | 1012.4 |
| 20260904194905 | 95 | 185 | 5.0 | 10.0 | 0.00 | 0.01 | 0.01 | 44 | 1012.5 |
| 20260904194806 | 95 | 182 | 5.0 | 12.0 | 0.00 | 0.01 | 0.01 | 44 | 1012.5 |
| 20260904194504 | 94 | 178 | 5.0 | 12.0 | 0.00 | 0.01 | 0.01 | 44 | 1012.6 |
| 20260904194405 | 93 | 173 | 5.0 | 12.0 | 0.00 | 0.01 | 0.01 | 43 | 1012.6 |
| 20260904194304 | 93 | 167 | 5.0 | 12.0 | 0.00 | 0.01 | 0.01 | 45 | 1012.7 |
| 20260904194205 | 93 | 163 | 5.0 | 12.0 | 0.00 | 0.01 | 0.01 | 45 | 1012.7 |
| 20260904194107 | 93 | 163 | 5.0 | 12.0 | 0.00 | 0.01 | 0.01 | 45 | 1012.7 |
| 20260904194005 | 93 | 165 | 5.0 | 12.0 | 0.00 | 0.01 | 0.01 | 45 | 1012.7 |
| 20260904193905 | 93 | 169 | 4.0 | 12.0 | 0.00 | 0.01 | 0.01 | 45 | 1012.7 |
| 20260904193706 | 93 | 167 | 5.0 | 9.0 | 0.00 | 0.01 | 0.01 | 45 | 1012.7 |
| 20260904193605 | 93 | 170 | 5.0 | 10.0 | 0.00 | 0.01 | 0.01 | 45 | 1012.7 |
| 20260904193506 | 93 | 174 | 5.0 | 10.0 | 0.00 | 0.01 | 0.01 | 46 | 1012.8 |
| 20260904193405 | 93 | 177 | 5.0 | 10.0 | 0.00 | 0.01 | 0.01 | 46 | 1012.8 |
| 20260904193306 | 93 | 181 | 5.0 | 10.0 | 0.00 | 0.01 | 0.01 | 46 | 1012.8 |
| 20260904193205 | 93 | 182 | 5.0 | 10.0 | 0.00 | 0.01 | 0.01 | 47 | 1012.8 |
| 20260904193106 | 93 | 179 | 5.0 | 10.0 | 0.00 | 0.01 | 0.01 | 46 | 1012.8 |
| 20260904193005 | 93 | 176 | 6.0 | 10.0 | 0.00 | 0.01 | 0.01 | 47 | 1012.8 |
| 20260904192905 | 93 | 176 | 6.0 | 10.0 | 0.00 | 0.01 | 0.01 | 48 | 1012.9 |
| 20260904192805 | 93 | 175 | 6.0 | 11.0 | 0.00 | 0.01 | 0.01 | 48 | 1012.8 |
| 20260904192705 | 93 | 172 | 6.0 | 14.0 | 0.00 | 0.01 | 0.01 | 48 | 1012.8 |
| 20260904192605 | 93 | 169 | 6.0 | 14.0 | 0.00 | 0.01 | 0.01 | 48 | 1012.8 |
| 20260904192506 | 93 | 166 | 6.0 | 14.0 | 0.00 | 0.01 | 0.01 | 47 | 1012.9 |
| 20260904192405 | 93 | 163 | 6.0 | 14.0 | 0.00 | 0.01 | 0.01 | 48 | 1012.9 |
| 20260904192306 | 93 | 161 | 6.0 | 14.0 | 0.00 | 0.01 | 0.01 | 48 | 1012.9 |
| 20260904192205 | 93 | 156 | 6.0 | 14.0 | 0.00 | 0.01 | 0.01 | 48 | 1012.9 |
| 20260904192106 | 93 | 152 | 6.0 | 14.0 | 0.00 | 0.01 | 0.01 | 48 | 1012.9 |
| 20260904192005 | 93 | 147 | 6.0 | 14.0 | 0.00 | 0.01 | 0.01 | 47 | 1012.9 |
| 20260904191906 | 93 | 143 | 6.0 | 14.0 | 0.00 | 0.01 | 0.01 | 47 | 1012.9 |
| 20260904191805 | 93 | 140 | 6.0 | 14.0 | 0.00 | 0.01 | 0.01 | 47 | 1012.9 |
| 20260904191705 | 93 | 138 | 5.0 | 12.0 | 0.00 | 0.01 | 0.01 | 47 | 1012.9 |
| 20260904191605 | 93 | 139 | 6.0 | 12.0 | 0.00 | 0.01 | 0.01 | 48 | 1012.9 |
| 20260904191505 | 93 | 140 | 6.0 | 12.0 | 0.00 | 0.01 | 0.01 | 48 | 1012.9 |
| 20260904191405 | 93 | 142 | 5.0 | 12.0 | 0.00 | 0.01 | 0.01 | 48 | 1013.0 |
| 20260904191305 | 93 | 140 | 5.0 | 12.0 | 0.00 | 0.01 | 0.01 | 48 | 1013.0 |
| 20260904191205 | 92 | 140 | 5.0 | 12.0 | 0.00 | 0.01 | 0.01 | 48 | 1013.0 |
| 20260904191105 | 92 | 142 | 4.0 | 12.0 | 0.00 | 0.01 | 0.01 | 49 | 1013.0 |
| 20260904191005 | 92 | 147 | 5.0 | 10.0 | 0.00 | 0.01 | 0.01 | 49 | 1013.0 |
| 20260904190905 | 92 | 149 | 5.0 | 10.0 | 0.00 | 0.01 | 0.01 | 49 | 1013.1 |
| 20260904190804 | 92 | 153 | 5.0 | 10.0 | 0.00 | 0.01 | 0.01 | 49 | 1013.2 |
| 20260904190705 | 92 | 158 | 5.0 | 11.0 | 0.00 | 0.01 | 0.01 | 49 | 1013.2 |
| 20260904190605 | 92 | 159 | 5.0 | 11.0 | 0.00 | 0.01 | 0.01 | 50 | 1013.2 |
| 20260904190505 | 92 | 159 | 4.0 | 11.0 | 0.00 | 0.01 | 0.01 | 50 | 1013.1 |
| 20260904190405 | 92 | 164 | 5.0 | 11.0 | 0.00 | 0.01 | 0.01 | 50 | 1013.2 |
| 20260904190305 | 92 | 165 | 5.0 | 11.0 | 0.00 | 0.01 | 0.01 | 49 | 1013.2 |
| 20260904190205 | 92 | 166 | 5.0 | 11.0 | 0.00 | 0.01 | 0.01 | 49 | 1013.2 |
| 20260904190106 | 92 | 167 | 5.0 | 11.0 | 0.00 | 0.01 | 0.01 | 49 | 1013.2 |
| 20260904190007 | 92 | 168 | 5.0 | 11.0 | 0.00 | 0.01 | 0.01 | 50 | 1013.2 |
| 20260904185905 | 92 | 169 | 4.0 | 11.0 | 0.00 | 0.01 | 0.01 | 50 | 1013.2 |
| 20260904185806 | 92 | 170 | 4.0 | 11.0 | 0.00 | 0.01 | 0.01 | 50 | 1013.2 |
| 20260904185705 | 92 | 173 | 4.0 | 8.0 | 0.00 | 0.01 | 0.01 | 53 | 1013.2 |
| 20260904185605 | 92 | 178 | 4.0 | 8.0 | 0.00 | 0.01 | 0.01 | 53 | 1013.2 |
| 20260904185504 | 92 | 181 | 4.0 | 8.0 | 0.00 | 0.01 | 0.01 | 53 | 1013.2 |
| 20260904185405 | 92 | 177 | 4.0 | 8.0 | 0.00 | 0.01 | 0.01 | 53 | 1013.2 |
| 20260904185205 | 92 | 175 | 3.0 | 8.0 | 0.00 | 0.01 | 0.01 | 53 | 1013.3 |
| 20260904185104 | 92 | 172 | 3.0 | 8.0 | 0.00 | 0.01 | 0.01 | 53 | 1013.3 |
| 20260904185005 | 92 | 169 | 3.0 | 6.0 | 0.00 | 0.01 | 0.01 | 53 | 1013.2 |
| 20260904184805 | 92 | 145 | 2.0 | 6.0 | 0.00 | 0.01 | 0.01 | 53 | 1013.2 |
| 20260904184705 | 92 | 138 | 2.0 | 6.0 | 0.00 | 0.01 | 0.01 | 53 | 1013.3 |
| 20260904184605 | 92 | 128 | 2.0 | 5.0 | 0.00 | 0.01 | 0.01 | 53 | 1013.3 |
| 20260904184505 | 92 | 121 | 2.0 | 5.0 | 0.00 | 0.01 | 0.01 | 53 | 1013.3 |
| 20260904184405 | 92 | 129 | 2.0 | 5.0 | 0.00 | 0.01 | 0.01 | 53 | 1013.2 |
| 20260904184305 | 92 | 130 | 2.0 | 5.0 | 0.00 | 0.01 | 0.01 | 53 | 1013.3 |
| 20260904184206 | 91 | 126 | 2.0 | 5.0 | 0.00 | 0.01 | 0.01 | 53 | 1013.3 |
| 20260904184105 | 91 | 140 | 3.0 | 6.0 | 0.00 | 0.01 | 0.01 | 53 | 1013.3 |
| 20260904184005 | 92 | 145 | 3.0 | 7.0 | 0.00 | 0.01 | 0.01 | 52 | 1013.3 |
| 20260904183905 | 92 | 152 | 3.0 | 8.0 | 0.00 | 0.01 | 0.01 | 52 | 1013.3 |
| 20260904183805 | 92 | 162 | 3.0 | 8.0 | 0.00 | 0.01 | 0.01 | 53 | 1013.3 |
| 20260904183704 | 92 | 164 | 3.0 | 8.0 | 0.00 | 0.01 | 0.01 | 53 | 1013.4 |
| 20260904183304 | 92 | 183 | 4.0 | 8.0 | 0.00 | 0.01 | 0.01 | 51 | 1013.4 |
| 20260904183105 | 92 | 185 | 4.0 | 8.0 | 0.00 | 0.01 | 0.01 | 53 | 1013.4 |
| 20260904183005 | 92 | 190 | 4.0 | 8.0 | 0.00 | 0.01 | 0.01 | 53 | 1013.4 |
| 20260904182805 | 92 | 186 | 4.0 | 8.0 | 0.00 | 0.01 | 0.01 | 53 | 1013.4 |
| 20260904182604 | 91 | 184 | 5.0 | 10.0 | 0.00 | 0.01 | 0.01 | 54 | 1013.4 |
| 20260904182505 | 91 | 181 | 5.0 | 10.0 | 0.00 | 0.01 | 0.01 | 54 | 1013.4 |
| 20260904182405 | 91 | 176 | 5.0 | 10.0 | 0.00 | 0.01 | 0.01 | 53 | 1013.4 |
| 20260904182205 | 91 | 172 | 5.0 | 10.0 | 0.00 | 0.01 | 0.01 | 53 | 1013.4 |
| 20260904182105 | 91 | 168 | 5.0 | 10.0 | 0.00 | 0.01 | 0.01 | 54 | 1013.4 |
| 20260904181905 | 91 | 166 | 5.0 | 10.0 | 0.00 | 0.01 | 0.01 | 54 | 1013.5 |
| 20260904181805 | 91 | 168 | 5.0 | 10.0 | 0.00 | 0.01 | 0.01 | 53 | 1013.5 |
| 20260904181704 | 91 | 163 | 5.0 | 10.0 | 0.00 | 0.01 | 0.01 | 54 | 1013.5 |
| 20260904181605 | 91 | 165 | 5.0 | 10.0 | 0.00 | 0.01 | 0.01 | 54 | 1013.5 |
| 20260904181405 | 91 | 176 | 5.0 | 9.0 | 0.00 | 0.01 | 0.01 | 54 | 1013.5 |
| 20260904181306 | 91 | 182 | 5.0 | 9.0 | 0.00 | 0.01 | 0.01 | 54 | 1013.5 |
| 20260904181205 | 91 | 181 | 5.0 | 9.0 | 0.00 | 0.01 | 0.01 | 54 | 1013.5 |
| 20260904181105 | 91 | 177 | 5.0 | 9.0 | 0.00 | 0.01 | 0.01 | 53 | 1013.5 |
| 20260904180805 | 91 | 189 | 6.0 | 11.0 | 0.00 | 0.01 | 0.01 | 55 | 1013.5 |
| 20260904180705 | 91 | 194 | 6.0 | 11.0 | 0.00 | 0.01 | 0.01 | 55 | 1013.6 |
| 20260904180504 | 91 | 190 | 6.0 | 12.0 | 0.00 | 0.01 | 0.01 | 55 | 1013.6 |
| 20260904180405 | 91 | 188 | 6.0 | 12.0 | 0.00 | 0.01 | 0.01 | 55 | 1013.6 |
| 20260904180304 | 91 | 186 | 6.0 | 12.0 | 0.00 | 0.01 | 0.01 | 55 | 1013.6 |
| 20260904180205 | 91 | 185 | 6.0 | 12.0 | 0.00 | 0.01 | 0.01 | 55 | 1013.7 |
| 20260904180104 | 91 | 189 | 6.0 | 12.0 | 0.00 | 0.01 | 0.01 | 55 | 1013.7 |
| 20260904180005 | 91 | 186 | 6.0 | 12.0 | 0.00 | 0.01 | 0.01 | 55 | 1013.7 |
| 20260904175904 | 92 | 182 | 5.0 | 12.0 | 0.00 | 0.01 | 0.01 | 55 | 1013.7 |
| 20260904175805 | 92 | 170 | 5.0 | 12.0 | 0.00 | 0.01 | 0.01 | 56 | 1013.7 |
| 20260904175604 | 92 | 158 | 5.0 | 12.0 | 0.00 | 0.01 | 0.01 | 57 | 1013.7 |
| 20260904175505 | 91 | 152 | 5.0 | 9.0 | 0.00 | 0.01 | 0.01 | 57 | 1013.7 |
| 20260904175405 | 91 | 150 | 5.0 | 9.0 | 0.00 | 0.01 | 0.01 | 57 | 1013.8 |
| 20260904175306 | 91 | 153 | 5.0 | 9.0 | 0.00 | 0.01 | 0.01 | 57 | 1013.8 |
| 20260904175205 | 91 | 154 | 5.0 | 9.0 | 0.00 | 0.01 | 0.01 | 57 | 1013.8 |
| 20260904175105 | 90 | 156 | 5.0 | 9.0 | 0.00 | 0.01 | 0.01 | 58 | 1013.8 |
| 20260904175005 | 90 | 162 | 5.0 | 9.0 | 0.00 | 0.01 | 0.01 | 57 | 1013.8 |
| 20260904174904 | 90 | 171 | 6.0 | 10.0 | 0.00 | 0.01 | 0.01 | 57 | 1013.8 |
| 20260904174805 | 91 | 182 | 6.0 | 14.0 | 0.00 | 0.01 | 0.01 | 57 | 1013.9 |
| 20260904174704 | 91 | 188 | 6.0 | 14.0 | 0.00 | 0.01 | 0.01 | 57 | 1013.9 |
| 20260904174605 | 91 | 192 | 7.0 | 14.0 | 0.00 | 0.01 | 0.01 | 57 | 1013.9 |
| 20260904174504 | 91 | 196 | 7.0 | 14.0 | 0.00 | 0.01 | 0.01 | 56 | 1013.9 |
| 20260904174405 | 91 | 199 | 7.0 | 14.0 | 0.00 | 0.01 | 0.01 | 57 | 1013.9 |
| 20260904174304 | 91 | 202 | 7.0 | 14.0 | 0.00 | 0.01 | 0.01 | 57 | 1013.9 |
| 20260904174205 | 91 | 202 | 6.0 | 14.0 | 0.00 | 0.01 | 0.01 | 57 | 1013.9 |
| 20260904174005 | 90 | 201 | 6.0 | 14.0 | 0.00 | 0.01 | 0.01 | 57 | 1013.9 |
| 20260904173904 | 90 | 200 | 6.0 | 14.0 | 0.00 | 0.01 | 0.01 | 57 | 1013.9 |
| 20260904173805 | 90 | 198 | 6.0 | 12.0 | 0.00 | 0.01 | 0.01 | 58 | 1013.9 |
| 20260904173705 | 90 | 196 | 5.0 | 12.0 | 0.00 | 0.01 | 0.01 | 58 | 1014.0 |
| 20260904173405 | 90 | 178 | 5.0 | 11.0 | 0.00 | 0.01 | 0.01 | 58 | 1014.0 |
| 20260904173305 | 90 | 176 | 5.0 | 11.0 | 0.00 | 0.01 | 0.01 | 58 | 1014.0 |
| 20260904173205 | 90 | 175 | 5.0 | 11.0 | 0.00 | 0.01 | 0.01 | 58 | 1014.1 |
| 20260904173105 | 90 | 178 | 5.0 | 11.0 | 0.00 | 0.01 | 0.01 | 58 | 1014.1 |
| 20260904172905 | 90 | 178 | 5.0 | 11.0 | 0.00 | 0.01 | 0.01 | 59 | 1014.1 |
| 20260904172805 | 90 | 177 | 5.0 | 11.0 | 0.00 | 0.01 | 0.01 | 59 | 1014.1 |
| 20260904172205 | 90 | 189 | 4.0 | 11.0 | 0.00 | 0.01 | 0.01 | 58 | 1014.2 |
| 20260904172106 | 90 | 178 | 4.0 | 11.0 | 0.00 | 0.01 | 0.01 | 58 | 1014.2 |
| 20260904172005 | 90 | 173 | 4.0 | 11.0 | 0.00 | 0.01 | 0.01 | 58 | 1014.2 |
| 20260904171905 | 90 | 167 | 4.0 | 8.0 | 0.00 | 0.01 | 0.01 | 57 | 1014.2 |
| 20260904171804 | 91 | 167 | 5.0 | 13.0 | 0.00 | 0.01 | 0.01 | 57 | 1014.2 |
| 20260904171705 | 91 | 167 | 5.0 | 13.0 | 0.00 | 0.01 | 0.01 | 57 | 1014.2 |
| 20260904171605 | 91 | 167 | 5.0 | 13.0 | 0.00 | 0.01 | 0.01 | 57 | 1014.2 |
| 20260904171505 | 91 | 162 | 6.0 | 13.0 | 0.00 | 0.01 | 0.01 | 57 | 1014.1 |
| 20260904171405 | 91 | 164 | 6.0 | 13.0 | 0.00 | 0.01 | 0.01 | 57 | 1014.1 |
| 20260904171304 | 91 | 166 | 6.0 | 13.0 | 0.00 | 0.01 | 0.01 | 57 | 1014.1 |
| 20260904171205 | 92 | 167 | 6.0 | 13.0 | 0.00 | 0.01 | 0.01 | 58 | 1014.2 |
| 20260904171105 | 92 | 173 | 6.0 | 13.0 | 0.00 | 0.01 | 0.01 | 58 | 1014.1 |
| 20260904171006 | 92 | 176 | 6.0 | 13.0 | 0.00 | 0.01 | 0.01 | 57 | 1014.2 |
| 20260904170904 | 92 | 178 | 6.0 | 13.0 | 0.00 | 0.01 | 0.01 | 57 | 1014.2 |
| 20260904170804 | 92 | 178 | 5.0 | 12.0 | 0.00 | 0.01 | 0.01 | 56 | 1014.2 |
| 20260904170705 | 92 | 177 | 6.0 | 12.0 | 0.00 | 0.01 | 0.01 | 56 | 1014.2 |
| 20260904170604 | 92 | 177 | 5.0 | 12.0 | 0.00 | 0.01 | 0.01 | 56 | 1014.3 |
| 20260904170505 | 92 | 187 | 5.0 | 11.0 | 0.00 | 0.01 | 0.01 | 56 | 1014.3 |
| 20260904170404 | 92 | 192 | 6.0 | 12.0 | 0.00 | 0.01 | 0.01 | 58 | 1014.3 |
| 20260904170305 | 92 | 196 | 6.0 | 12.0 | 0.00 | 0.01 | 0.01 | 59 | 1014.4 |
| 20260904170204 | 91 | 200 | 6.0 | 12.0 | 0.00 | 0.01 | 0.01 | 58 | 1014.4 |
| 20260904170004 | 91 | 194 | 6.0 | 12.0 | 0.00 | 0.01 | 0.01 | 59 | 1014.3 |
| 20260904165905 | 91 | 196 | 7.0 | 12.0 | 0.00 | 0.01 | 0.01 | 59 | 1014.3 |
| 20260904165805 | 91 | 194 | 7.0 | 12.0 | 0.00 | 0.01 | 0.01 | 57 | 1014.3 |
| 20260904165704 | 91 | 194 | 7.0 | 12.0 | 0.00 | 0.01 | 0.01 | 58 | 1014.3 |
| 20260904165605 | 91 | 195 | 8.0 | 12.0 | 0.00 | 0.01 | 0.01 | 58 | 1014.3 |
| 20260904165505 | 91 | 193 | 8.0 | 12.0 | 0.00 | 0.01 | 0.01 | 59 | 1014.3 |
| 20260904165405 | 91 | 190 | 8.0 | 12.0 | 0.00 | 0.01 | 0.01 | 59 | 1014.3 |
| 20260904165305 | 91 | 187 | 7.0 | 12.0 | 0.00 | 0.01 | 0.01 | 59 | 1014.3 |
| 20260904165105 | 91 | 186 | 7.0 | 12.0 | 0.00 | 0.01 | 0.01 | 57 | 1014.3 |
| 20260904164805 | 91 | 199 | 6.0 | 12.0 | 0.00 | 0.01 | 0.01 | 57 | 1014.3 |
| 20260904164705 | 91 | 200 | 7.0 | 11.0 | 0.00 | 0.01 | 0.01 | 57 | 1014.2 |
| 20260904164604 | 91 | 198 | 6.0 | 11.0 | 0.00 | 0.01 | 0.01 | 57 | 1014.3 |
| 20260904164505 | 91 | 197 | 6.0 | 11.0 | 0.00 | 0.01 | 0.01 | 57 | 1014.3 |
| 20260904164404 | 91 | 196 | 6.0 | 11.0 | 0.00 | 0.01 | 0.01 | 58 | 1014.3 |
| 20260904164305 | 91 | 198 | 6.0 | 11.0 | 0.00 | 0.01 | 0.01 | 59 | 1014.3 |
| 20260904164105 | 91 | 198 | 6.0 | 11.0 | 0.00 | 0.01 | 0.01 | 57 | 1014.3 |
| 20260904164005 | 90 | 196 | 6.0 | 11.0 | 0.00 | 0.01 | 0.01 | 59 | 1014.3 |
| 20260904163905 | 91 | 196 | 7.0 | 11.0 | 0.00 | 0.01 | 0.01 | 59 | 1014.3 |
| 20260904163805 | 91 | 194 | 7.0 | 14.0 | 0.00 | 0.01 | 0.01 | 59 | 1014.3 |
| 20260904163704 | 90 | 193 | 7.0 | 14.0 | 0.00 | 0.01 | 0.01 | 59 | 1014.2 |
| 20260904163505 | 90 | 194 | 7.0 | 14.0 | 0.00 | 0.01 | 0.01 | 60 | 1014.2 |
| 20260904163405 | 90 | 197 | 7.0 | 14.0 | 0.00 | 0.01 | 0.01 | 61 | 1014.3 |
| 20260904163305 | 89 | 198 | 7.0 | 14.0 | 0.00 | 0.01 | 0.01 | 60 | 1014.3 |
| 20260904163205 | 89 | 196 | 7.0 | 14.0 | 0.00 | 0.01 | 0.01 | 61 | 1014.3 |
| 20260904163104 | 89 | 197 | 7.0 | 14.0 | 0.00 | 0.01 | 0.01 | 60 | 1014.3 |
| 20260904163005 | 89 | 197 | 7.0 | 14.0 | 0.00 | 0.01 | 0.01 | 60 | 1014.3 |
| 20260904162905 | 89 | 194 | 6.0 | 14.0 | 0.00 | 0.01 | 0.01 | 60 | 1014.3 |
| 20260904162805 | 89 | 194 | 6.0 | 13.0 | 0.00 | 0.01 | 0.01 | 60 | 1014.3 |
| 20260904162704 | 89 | 193 | 6.0 | 13.0 | 0.00 | 0.01 | 0.01 | 62 | 1014.3 |
| 20260904162605 | 89 | 190 | 6.0 | 11.0 | 0.00 | 0.01 | 0.01 | 62 | 1014.3 |
| 20260904162505 | 89 | 188 | 7.0 | 12.0 | 0.00 | 0.01 | 0.01 | 62 | 1014.4 |
| 20260904162405 | 89 | 185 | 7.0 | 12.0 | 0.00 | 0.01 | 0.01 | 63 | 1014.3 |
| 20260904162306 | 89 | 183 | 7.0 | 12.0 | 0.00 | 0.01 | 0.01 | 65 | 1014.3 |
| 20260904162204 | 88 | 184 | 7.0 | 12.0 | 0.00 | 0.01 | 0.01 | 65 | 1014.3 |
| 20260904162106 | 88 | 183 | 7.0 | 12.0 | 0.00 | 0.01 | 0.01 | 67 | 1014.3 |
| 20260904162005 | 87 | 183 | 7.0 | 12.0 | 0.00 | 0.01 | 0.01 | 67 | 1014.4 |
| 20260904161806 | 86 | 183 | 7.0 | 12.0 | 0.00 | 0.01 | 0.01 | 66 | 1014.4 |
| 20260904161705 | 87 | 185 | 7.0 | 12.0 | 0.00 | 0.01 | 0.01 | 65 | 1014.4 |
| 20260904161604 | 87 | 189 | 7.0 | 12.0 | 0.00 | 0.01 | 0.01 | 65 | 1014.4 |
| 20260904161505 | 87 | 190 | 6.0 | 12.0 | 0.00 | 0.01 | 0.01 | 65 | 1014.4 |
| 20260904161404 | 87 | 193 | 7.0 | 12.0 | 0.00 | 0.01 | 0.01 | 65 | 1014.4 |
| 20260904161305 | 87 | 195 | 7.0 | 12.0 | 0.00 | 0.01 | 0.01 | 65 | 1014.4 |
| 20260904161205 | 87 | 194 | 7.0 | 13.0 | 0.00 | 0.01 | 0.01 | 66 | 1014.4 |
| 20260904161105 | 87 | 192 | 7.0 | 13.0 | 0.00 | 0.01 | 0.01 | 66 | 1014.4 |
| 20260904160904 | 87 | 187 | 7.0 | 13.0 | 0.00 | 0.01 | 0.01 | 67 | 1014.4 |
| 20260904160705 | 87 | 187 | 7.0 | 13.0 | 0.00 | 0.01 | 0.01 | 67 | 1014.4 |
| 20260904160604 | 86 | 184 | 8.0 | 13.0 | 0.00 | 0.01 | 0.01 | 68 | 1014.4 |
| 20260904160505 | 86 | 182 | 8.0 | 13.0 | 0.00 | 0.01 | 0.01 | 68 | 1014.4 |
| 20260904160405 | 86 | 179 | 8.0 | 13.0 | 0.00 | 0.01 | 0.01 | 68 | 1014.4 |
| 20260904160304 | 86 | 178 | 8.0 | 13.0 | 0.00 | 0.01 | 0.01 | 68 | 1014.4 |
| 20260904160204 | 86 | 178 | 8.0 | 13.0 | 0.00 | 0.01 | 0.01 | 69 | 1014.3 |
| 20260904160105 | 86 | 181 | 8.0 | 13.0 | 0.00 | 0.01 | 0.01 | 69 | 1014.4 |
| 20260904160005 | 86 | 183 | 8.0 | 14.0 | 0.00 | 0.01 | 0.01 | 69 | 1014.3 |
| 20260904155905 | 86 | 185 | 8.0 | 14.0 | 0.00 | 0.01 | 0.01 | 70 | 1014.3 |
| 20260904155804 | 86 | 185 | 8.0 | 14.0 | 0.00 | 0.01 | 0.01 | 70 | 1014.3 |
| 20260904155705 | 86 | 183 | 8.0 | 14.0 | 0.00 | 0.01 | 0.01 | 69 | 1014.3 |
| 20260904155604 | 86 | 182 | 8.0 | 14.0 | 0.00 | 0.01 | 0.01 | 68 | 1014.3 |
| 20260904155505 | 86 | 183 | 8.0 | 14.0 | 0.00 | 0.01 | 0.01 | 69 | 1014.2 |
| 20260904155404 | 86 | 184 | 7.0 | 14.0 | 0.00 | 0.01 | 0.01 | 68 | 1014.3 |
| 20260904155307 | 86 | 182 | 7.0 | 14.0 | 0.00 | 0.01 | 0.01 | 69 | 1014.3 |
| 20260904155204 | 86 | 179 | 7.0 | 14.0 | 0.00 | 0.01 | 0.01 | 70 | 1014.3 |
| 20260904154905 | 86 | 175 | 6.0 | 11.0 | 0.00 | 0.01 | 0.01 | 72 | 1014.3 |
| 20260904154805 | 86 | 175 | 6.0 | 11.0 | 0.00 | 0.01 | 0.01 | 72 | 1014.3 |
| 20260904154705 | 85 | 177 | 6.0 | 11.0 | 0.00 | 0.01 | 0.01 | 72 | 1014.3 |
| 20260904154604 | 85 | 177 | 6.0 | 11.0 | 0.00 | 0.01 | 0.01 | 73 | 1014.2 |
| 20260904154505 | 85 | 175 | 6.0 | 11.0 | 0.00 | 0.01 | 0.01 | 74 | 1014.2 |
| 20260904154305 | 84 | 178 | 5.0 | 10.0 | 0.00 | 0.01 | 0.01 | 76 | 1014.2 |
| 20260904154105 | 84 | 183 | 5.0 | 10.0 | 0.00 | 0.01 | 0.01 | 76 | 1014.2 |
| 20260904154004 | 84 | 184 | 5.0 | 10.0 | 0.00 | 0.01 | 0.01 | 76 | 1014.2 |
| 20260904153905 | 84 | 185 | 5.0 | 10.0 | 0.00 | 0.01 | 0.01 | 77 | 1014.2 |
| 20260904153804 | 84 | 186 | 5.0 | 10.0 | 0.00 | 0.01 | 0.01 | 78 | 1014.2 |
| 20260904153705 | 84 | 186 | 5.0 | 10.0 | 0.00 | 0.01 | 0.01 | 77 | 1014.1 |
| 20260904153605 | 83 | 187 | 5.0 | 10.0 | 0.00 | 0.01 | 0.01 | 77 | 1014.1 |
| 20260904153505 | 84 | 192 | 4.0 | 10.0 | 0.00 | 0.01 | 0.01 | 78 | 1014.1 |
| 20260904153404 | 84 | 194 | 4.0 | 10.0 | 0.00 | 0.01 | 0.01 | 78 | 1014.1 |
| 20260904153305 | 83 | 195 | 5.0 | 10.0 | 0.00 | 0.01 | 0.01 | 78 | 1014.1 |
| 20260904153204 | 83 | 196 | 5.0 | 10.0 | 0.00 | 0.01 | 0.01 | 78 | 1014.2 |
| 20260904153105 | 83 | 197 | 5.0 | 10.0 | 0.00 | 0.01 | 0.01 | 78 | 1014.1 |
| 20260904152905 | 83 | 199 | 6.0 | 10.0 | 0.00 | 0.01 | 0.01 | 78 | 1014.2 |
| 20260904152805 | 83 | 200 | 6.0 | 10.0 | 0.00 | 0.01 | 0.01 | 78 | 1014.2 |
| 20260904152704 | 83 | 201 | 5.0 | 10.0 | 0.00 | 0.01 | 0.01 | 79 | 1014.2 |
| 20260904152504 | 82 | 201 | 6.0 | 10.0 | 0.00 | 0.01 | 0.01 | 79 | 1014.2 |
| 20260904152405 | 82 | 199 | 6.0 | 10.0 | 0.00 | 0.01 | 0.01 | 80 | 1014.2 |
| 20260904152306 | 82 | 198 | 5.0 | 10.0 | 0.00 | 0.01 | 0.01 | 79 | 1014.2 |
| 20260904152204 | 82 | 197 | 5.0 | 10.0 | 0.00 | 0.01 | 0.01 | 80 | 1014.2 |
| 20260904152005 | 82 | 199 | 5.0 | 10.0 | 0.00 | 0.01 | 0.01 | 80 | 1014.2 |
| 20260904151905 | 82 | 199 | 5.0 | 10.0 | 0.00 | 0.01 | 0.01 | 80 | 1014.2 |
| 20260904151804 | 82 | 197 | 5.0 | 10.0 | 0.00 | 0.01 | 0.01 | 80 | 1014.2 |
| 20260904151705 | 82 | 198 | 5.0 | 10.0 | 0.00 | 0.01 | 0.01 | 80 | 1014.2 |
| 20260904151604 | 82 | 198 | 5.0 | 10.0 | 0.00 | 0.01 | 0.01 | 80 | 1014.2 |
| 20260904151304 | 82 | 207 | 5.0 | 10.0 | 0.00 | 0.01 | 0.01 | 81 | 1014.2 |
| 20260904151205 | 82 | 207 | 4.0 | 10.0 | 0.00 | 0.01 | 0.01 | 81 | 1014.2 |
| 20260904151104 | 82 | 206 | 4.0 | 9.0 | 0.00 | 0.01 | 0.01 | 81 | 1014.2 |
| 20260904151005 | 82 | 206 | 5.0 | 10.0 | 0.00 | 0.01 | 0.01 | 81 | 1014.2 |
| 20260904150905 | 82 | 206 | 5.0 | 10.0 | 0.00 | 0.01 | 0.01 | 81 | 1014.3 |
| 20260904150704 | 81 | 207 | 5.0 | 10.0 | 0.00 | 0.01 | 0.01 | 82 | 1014.2 |
| 20260904150605 | 81 | 206 | 5.0 | 10.0 | 0.00 | 0.01 | 0.01 | 82 | 1014.3 |
| 20260904150505 | 81 | 206 | 5.0 | 11.0 | 0.00 | 0.01 | 0.01 | 82 | 1014.2 |
| 20260904150304 | 81 | 204 | 5.0 | 11.0 | 0.00 | 0.01 | 0.01 | 82 | 1014.2 |
| 20260904150204 | 81 | 204 | 6.0 | 11.0 | 0.00 | 0.01 | 0.01 | 82 | 1014.2 |
| 20260904150105 | 81 | 204 | 6.0 | 11.0 | 0.00 | 0.01 | 0.01 | 82 | 1014.2 |
| 20260904150004 | 81 | 204 | 5.0 | 11.0 | 0.00 | 0.01 | 0.01 | 82 | 1014.2 |
| 20260904145905 | 81 | 205 | 6.0 | 11.0 | 0.00 | 0.01 | 0.01 | 82 | 1014.2 |
| 20260904145705 | 80 | 206 | 5.0 | 11.0 | 0.00 | 0.01 | 0.01 | 82 | 1014.2 |
| 20260904145604 | 80 | 207 | 5.0 | 11.0 | 0.00 | 0.01 | 0.01 | 82 | 1014.2 |
| 20260904145306 | 80 | 209 | 5.0 | 11.0 | 0.00 | 0.01 | 0.01 | 82 | 1014.2 |
| 20260904145204 | 80 | 211 | 6.0 | 11.0 | 0.00 | 0.01 | 0.01 | 82 | 1014.2 |
| 20260904145004 | 80 | 213 | 6.0 | 13.0 | 0.00 | 0.01 | 0.01 | 82 | 1014.2 |
| 20260904144804 | 80 | 214 | 6.0 | 13.0 | 0.00 | 0.01 | 0.01 | 83 | 1014.1 |
| 20260904144705 | 80 | 215 | 6.0 | 13.0 | 0.00 | 0.01 | 0.01 | 83 | 1014.0 |
| 20260904144605 | 80 | 217 | 6.0 | 13.0 | 0.00 | 0.01 | 0.01 | 83 | 1014.0 |
| 20260904144404 | 80 | 217 | 6.0 | 13.0 | 0.00 | 0.01 | 0.01 | 83 | 1014.0 |
| 20260904144305 | 80 | 218 | 6.0 | 13.0 | 0.00 | 0.01 | 0.01 | 83 | 1014.0 |
| 20260904144204 | 80 | 219 | 6.0 | 13.0 | 0.00 | 0.01 | 0.01 | 83 | 1013.9 |
| 20260904144004 | 80 | 221 | 5.0 | 11.0 | 0.00 | 0.01 | 0.01 | 83 | 1013.9 |
| 20260904143904 | 80 | 223 | 5.0 | 11.0 | 0.00 | 0.01 | 0.01 | 83 | 1013.9 |
| 20260904143805 | 80 | 223 | 5.0 | 10.0 | 0.00 | 0.01 | 0.01 | 83 | 1013.9 |
| 20260904143605 | 80 | 225 | 6.0 | 11.0 | 0.00 | 0.01 | 0.01 | 84 | 1013.9 |
| 20260904143505 | 80 | 225 | 6.0 | 11.0 | 0.00 | 0.01 | 0.01 | 84 | 1013.9 |
| 20260904143404 | 80 | 226 | 6.0 | 11.0 | 0.00 | 0.01 | 0.01 | 84 | 1014.0 |
| 20260904143204 | 80 | 230 | 6.0 | 11.0 | 0.00 | 0.01 | 0.01 | 84 | 1013.9 |
| 20260904143105 | 80 | 230 | 6.0 | 11.0 | 0.00 | 0.01 | 0.01 | 84 | 1013.9 |
| 20260904143004 | 80 | 232 | 6.0 | 11.0 | 0.00 | 0.01 | 0.01 | 84 | 1013.8 |
| 20260904142905 | 80 | 231 | 6.0 | 11.0 | 0.00 | 0.01 | 0.01 | 84 | 1013.9 |
| 20260904142804 | 80 | 231 | 6.0 | 11.0 | 0.00 | 0.01 | 0.01 | 84 | 1013.9 |
| 20260904142604 | 80 | 234 | 6.0 | 12.0 | 0.00 | 0.01 | 0.01 | 84 | 1013.8 |
| 20260904142405 | 80 | 236 | 6.0 | 12.0 | 0.00 | 0.01 | 0.01 | 85 | 1013.8 |
| 20260904142306 | 80 | 235 | 6.0 | 12.0 | 0.00 | 0.01 | 0.01 | 85 | 1013.8 |
| 20260904141905 | 79 | 231 | 6.0 | 12.0 | 0.00 | 0.01 | 0.01 | 85 | 1013.8 |
| 20260904141604 | 79 | 227 | 5.0 | 10.0 | 0.00 | 0.01 | 0.01 | 85 | 1013.8 |
| 20260904141505 | 79 | 224 | 5.0 | 10.0 | 0.00 | 0.01 | 0.01 | 86 | 1013.8 |
| 20260904141404 | 79 | 221 | 4.0 | 10.0 | 0.00 | 0.01 | 0.01 | 86 | 1013.8 |
| 20260904141305 | 79 | 218 | 4.0 | 10.0 | 0.00 | 0.01 | 0.01 | 86 | 1013.8 |
| 20260904141105 | 79 | 212 | 4.0 | 10.0 | 0.00 | 0.01 | 0.01 | 86 | 1013.8 |
| 20260904141004 | 79 | 209 | 4.0 | 10.0 | 0.00 | 0.01 | 0.01 | 87 | 1013.7 |
| 20260904140804 | 79 | 205 | 4.0 | 10.0 | 0.00 | 0.01 | 0.01 | 87 | 1013.7 |
| 20260904140705 | 79 | 205 | 5.0 | 10.0 | 0.00 | 0.01 | 0.01 | 87 | 1013.7 |
| 20260904140604 | 79 | 203 | 5.0 | 10.0 | 0.00 | 0.01 | 0.01 | 87 | 1013.7 |
| 20260904140505 | 79 | 205 | 5.0 | 10.0 | 0.00 | 0.01 | 0.01 | 87 | 1013.7 |
| 20260904140404 | 79 | 208 | 5.0 | 10.0 | 0.00 | 0.01 | 0.01 | 87 | 1013.7 |
| 20260904140305 | 79 | 210 | 4.0 | 10.0 | 0.00 | 0.01 | 0.01 | 87 | 1013.6 |
| 20260904140204 | 79 | 211 | 4.0 | 10.0 | 0.00 | 0.01 | 0.01 | 87 | 1013.6 |
| 20260904140105 | 79 | 212 | 4.0 | 10.0 | 0.00 | 0.01 | 0.01 | 87 | 1013.7 |
| 20260904135905 | 79 | 219 | 4.0 | 9.0 | 0.00 | 0.01 | 0.01 | 88 | 1013.6 |
| 20260904135804 | 79 | 221 | 3.0 | 9.0 | 0.00 | 0.01 | 0.01 | 88 | 1013.6 |
| 20260904135605 | 79 | 227 | 3.0 | 9.0 | 0.00 | 0.01 | 0.01 | 88 | 1013.6 |
| 20260904135404 | 78 | 228 | 3.0 | 6.0 | 0.00 | 0.01 | 0.01 | 88 | 1013.6 |
| 20260904135306 | 78 | 226 | 3.0 | 6.0 | 0.00 | 0.01 | 0.01 | 88 | 1013.6 |
| 20260904135204 | 78 | 224 | 3.0 | 6.0 | 0.00 | 0.01 | 0.01 | 89 | 1013.6 |
| 20260904135105 | 78 | 222 | 3.0 | 8.0 | 0.00 | 0.01 | 0.01 | 89 | 1013.6 |
| 20260904135004 | 78 | 222 | 4.0 | 8.0 | 0.00 | 0.01 | 0.01 | 89 | 1013.6 |
| 20260904134905 | 78 | 221 | 4.0 | 8.0 | 0.00 | 0.01 | 0.01 | 89 | 1013.6 |
| 20260904134804 | 78 | 220 | 4.0 | 8.0 | 0.00 | 0.01 | 0.01 | 89 | 1013.6 |
| 20260904134705 | 78 | 220 | 4.0 | 8.0 | 0.00 | 0.01 | 0.01 | 89 | 1013.6 |
| 20260904134604 | 78 | 220 | 4.0 | 8.0 | 0.00 | 0.01 | 0.01 | 89 | 1013.6 |
| 20260904134404 | 78 | 222 | 4.0 | 8.0 | 0.00 | 0.01 | 0.01 | 89 | 1013.6 |
| 20260904134305 | 78 | 222 | 4.0 | 8.0 | 0.00 | 0.01 | 0.01 | 89 | 1013.6 |
| 20260904134204 | 78 | 224 | 3.0 | 8.0 | 0.00 | 0.01 | 0.01 | 89 | 1013.6 |
| 20260904134004 | 78 | 227 | 3.0 | 7.0 | 0.00 | 0.01 | 0.01 | 89 | 1013.6 |
| 20260904133904 | 78 | 228 | 3.0 | 6.0 | 0.00 | 0.01 | 0.01 | 89 | 1013.7 |
| 20260904133805 | 78 | 227 | 3.0 | 6.0 | 0.00 | 0.01 | 0.01 | 89 | 1013.7 |
| 20260904133605 | 78 | 225 | 3.0 | 7.0 | 0.00 | 0.01 | 0.01 | 89 | 1013.7 |
| 20260904133504 | 78 | 223 | 3.0 | 7.0 | 0.00 | 0.01 | 0.01 | 89 | 1013.7 |
| 20260904133404 | 78 | 219 | 3.0 | 7.0 | 0.00 | 0.01 | 0.01 | 89 | 1013.7 |
| 20260904133304 | 78 | 217 | 3.0 | 8.0 | 0.00 | 0.01 | 0.01 | 89 | 1013.7 |
| 20260904133204 | 78 | 216 | 4.0 | 8.0 | 0.00 | 0.01 | 0.01 | 89 | 1013.7 |
| 20260904133104 | 78 | 214 | 4.0 | 8.0 | 0.00 | 0.01 | 0.01 | 89 | 1013.7 |
| 20260904133004 | 78 | 213 | 4.0 | 8.0 | 0.00 | 0.01 | 0.01 | 89 | 1013.7 |
| 20260904132904 | 78 | 211 | 4.0 | 8.0 | 0.00 | 0.01 | 0.01 | 89 | 1013.7 |
| 20260904132704 | 78 | 211 | 4.0 | 8.0 | 0.00 | 0.01 | 0.01 | 89 | 1013.7 |
| 20260904132604 | 78 | 211 | 4.0 | 8.0 | 0.00 | 0.01 | 0.01 | 89 | 1013.7 |
| 20260904132505 | 78 | 210 | 4.0 | 8.0 | 0.00 | 0.01 | 0.01 | 89 | 1013.7 |
| 20260904132306 | 78 | 214 | 3.0 | 6.0 | 0.00 | 0.01 | 0.01 | 89 | 1013.7 |
| 20260904132205 | 78 | 215 | 3.0 | 6.0 | 0.00 | 0.01 | 0.01 | 89 | 1013.7 |
| 20260904132104 | 78 | 217 | 3.0 | 6.0 | 0.00 | 0.01 | 0.01 | 89 | 1013.7 |
| 20260904131804 | 78 | 216 | 3.0 | 6.0 | 0.00 | 0.01 | 0.01 | 90 | 1013.7 |
| 20260904131605 | 78 | 216 | 3.0 | 7.0 | 0.00 | 0.01 | 0.01 | 90 | 1013.7 |
| 20260904131504 | 77 | 214 | 3.0 | 8.0 | 0.00 | 0.01 | 0.01 | 89 | 1013.7 |
| 20260904131405 | 77 | 212 | 4.0 | 8.0 | 0.00 | 0.01 | 0.01 | 89 | 1013.7 |
| 20260904131304 | 77 | 213 | 4.0 | 9.0 | 0.00 | 0.01 | 0.01 | 89 | 1013.7 |
| 20260904131204 | 77 | 211 | 4.0 | 9.0 | 0.00 | 0.01 | 0.01 | 90 | 1013.7 |
| 20260904130905 | 77 | 207 | 5.0 | 9.0 | 0.00 | 0.01 | 0.01 | 90 | 1013.6 |
| 20260904130804 | 77 | 206 | 5.0 | 9.0 | 0.00 | 0.01 | 0.01 | 90 | 1013.5 |
| 20260904130705 | 77 | 204 | 5.0 | 10.0 | 0.00 | 0.01 | 0.01 | 90 | 1013.5 |
| 20260904130604 | 77 | 204 | 5.0 | 10.0 | 0.00 | 0.01 | 0.01 | 90 | 1013.4 |
| 20260904130504 | 77 | 203 | 5.0 | 10.0 | 0.00 | 0.01 | 0.01 | 90 | 1013.5 |
| 20260904130405 | 77 | 202 | 5.0 | 10.0 | 0.00 | 0.01 | 0.01 | 90 | 1013.4 |
| 20260904130304 | 77 | 201 | 5.0 | 10.0 | 0.00 | 0.01 | 0.01 | 90 | 1013.4 |
| 20260904130204 | 77 | 201 | 5.0 | 10.0 | 0.00 | 0.01 | 0.01 | 90 | 1013.3 |
| 20260904130104 | 77 | 200 | 5.0 | 10.0 | 0.00 | 0.01 | 0.01 | 90 | 1013.3 |
| 20260904125904 | 77 | 199 | 5.0 | 10.0 | 0.00 | 0.01 | 0.01 | 90 | 1013.3 |
| 20260904125804 | 77 | 198 | 5.0 | 10.0 | 0.01 | 0.01 | 0.01 | 90 | 1013.3 |
| 20260904125705 | 77 | 195 | 5.0 | 9.0 | 0.01 | 0.01 | 0.01 | 90 | 1013.3 |
| 20260904125505 | 77 | 191 | 4.0 | 8.0 | 0.01 | 0.01 | 0.01 | 90 | 1013.3 |
| 20260904125405 | 77 | 190 | 4.0 | 8.0 | 0.01 | 0.01 | 0.01 | 90 | 1013.3 |
| 20260904125205 | 77 | 184 | 4.0 | 10.0 | 0.01 | 0.01 | 0.01 | 90 | 1013.3 |
| 20260904125105 | 77 | 182 | 5.0 | 10.0 | 0.01 | 0.01 | 0.01 | 90 | 1013.3 |
| 20260904124904 | 77 | 178 | 5.0 | 10.0 | 0.01 | 0.01 | 0.01 | 90 | 1013.3 |
| 20260904124804 | 77 | 179 | 5.0 | 10.0 | 0.01 | 0.01 | 0.01 | 90 | 1013.3 |
| 20260904124704 | 77 | 179 | 6.0 | 10.0 | 0.01 | 0.01 | 0.01 | 90 | 1013.3 |
| 20260904124605 | 77 | 181 | 6.0 | 10.0 | 0.01 | 0.01 | 0.01 | 90 | 1013.3 |
| 20260904124504 | 77 | 178 | 6.0 | 10.0 | 0.01 | 0.01 | 0.01 | 90 | 1013.3 |
| 20260904124405 | 77 | 177 | 6.0 | 10.0 | 0.01 | 0.01 | 0.01 | 90 | 1013.2 |
| 20260904124304 | 77 | 176 | 7.0 | 10.0 | 0.01 | 0.01 | 0.01 | 90 | 1013.2 |
| 20260904124204 | 77 | 176 | 7.0 | 10.0 | 0.01 | 0.01 | 0.01 | 90 | 1013.2 |
| 20260904124104 | 77 | 176 | 7.0 | 10.0 | 0.01 | 0.01 | 0.01 | 90 | 1013.2 |
| 20260904124005 | 77 | 176 | 7.0 | 10.0 | 0.01 | 0.01 | 0.01 | 90 | 1013.1 |
| 20260904123904 | 77 | 175 | 7.0 | 10.0 | 0.01 | 0.01 | 0.01 | 90 | 1013.2 |
| 20260904123805 | 77 | 175 | 7.0 | 11.0 | 0.01 | 0.01 | 0.01 | 90 | 1013.1 |
| 20260904123705 | 77 | 176 | 7.0 | 11.0 | 0.01 | 0.01 | 0.01 | 90 | 1013.2 |
| 20260904123604 | 77 | 176 | 7.0 | 11.0 | 0.01 | 0.01 | 0.01 | 90 | 1013.1 |
| 20260904123505 | 77 | 175 | 7.0 | 11.0 | 0.01 | 0.01 | 0.01 | 90 | 1013.1 |
| 20260904123405 | 77 | 175 | 7.0 | 11.0 | 0.01 | 0.01 | 0.01 | 90 | 1013.2 |
| 20260904123304 | 77 | 175 | 7.0 | 11.0 | 0.01 | 0.01 | 0.01 | 90 | 1013.1 |
| 20260904123204 | 77 | 175 | 7.0 | 11.0 | 0.01 | 0.01 | 0.01 | 90 | 1013.1 |
| 20260904123104 | 77 | 175 | 7.0 | 11.0 | 0.01 | 0.01 | 0.01 | 90 | 1013.1 |
| 20260904123005 | 77 | 175 | 7.0 | 11.0 | 0.01 | 0.01 | 0.01 | 90 | 1013.1 |
| 20260904122904 | 77 | 174 | 7.0 | 11.0 | 0.01 | 0.01 | 0.01 | 90 | 1013.1 |
| 20260904122805 | 77 | 172 | 7.0 | 11.0 | 0.01 | 0.01 | 0.01 | 90 | 1013.1 |
| 20260904122704 | 77 | 171 | 7.0 | 11.0 | 0.01 | 0.01 | 0.01 | 89 | 1013.1 |
| 20260904122605 | 77 | 171 | 7.0 | 11.0 | 0.01 | 0.01 | 0.01 | 89 | 1013.0 |
| 20260904122504 | 77 | 172 | 7.0 | 11.0 | 0.01 | 0.01 | 0.01 | 89 | 1013.0 |
| 20260904122405 | 77 | 174 | 7.0 | 11.0 | 0.01 | 0.01 | 0.01 | 89 | 1013.1 |
| 20260904122204 | 77 | 176 | 6.0 | 10.0 | 0.01 | 0.01 | 0.01 | 89 | 1013.0 |
| 20260904122104 | 77 | 177 | 6.0 | 10.0 | 0.01 | 0.01 | 0.01 | 89 | 1013.0 |
| 20260904122004 | 77 | 179 | 6.0 | 10.0 | 0.01 | 0.01 | 0.01 | 89 | 1013.0 |
| 20260904121904 | 77 | 181 | 6.0 | 10.0 | 0.01 | 0.01 | 0.01 | 89 | 1013.0 |
| 20260904121804 | 77 | 183 | 5.0 | 10.0 | 0.01 | 0.01 | 0.01 | 89 | 1013.0 |
| 20260904121705 | 77 | 183 | 5.0 | 10.0 | 0.01 | 0.01 | 0.01 | 89 | 1013.0 |
| 20260904121604 | 77 | 182 | 6.0 | 10.0 | 0.01 | 0.01 | 0.01 | 89 | 1013.1 |
| 20260904121505 | 77 | 181 | 5.0 | 10.0 | 0.01 | 0.01 | 0.01 | 89 | 1013.1 |
| 20260904121404 | 77 | 177 | 6.0 | 9.0 | 0.01 | 0.01 | 0.01 | 89 | 1013.1 |
| 20260904121304 | 77 | 175 | 6.0 | 10.0 | 0.01 | 0.01 | 0.01 | 89 | 1013.1 |
| 20260904121204 | 77 | 173 | 6.0 | 10.0 | 0.01 | 0.01 | 0.01 | 89 | 1013.1 |
| 20260904121105 | 77 | 171 | 6.0 | 10.0 | 0.01 | 0.01 | 0.01 | 89 | 1013.1 |
| 20260904121004 | 77 | 171 | 6.0 | 10.0 | 0.01 | 0.01 | 0.01 | 89 | 1013.1 |
| 20260904120904 | 77 | 170 | 6.0 | 10.0 | 0.01 | 0.01 | 0.01 | 89 | 1013.1 |
| 20260904120804 | 77 | 169 | 6.0 | 10.0 | 0.01 | 0.01 | 0.01 | 89 | 1013.1 |
| 20260904120704 | 77 | 169 | 6.0 | 10.0 | 0.01 | 0.01 | 0.01 | 89 | 1013.1 |
| 20260904120604 | 77 | 169 | 5.0 | 10.0 | 0.01 | 0.01 | 0.01 | 89 | 1013.1 |
| 20260904120504 | 77 | 168 | 5.0 | 10.0 | 0.01 | 0.01 | 0.01 | 89 | 1013.0 |
| 20260904120404 | 77 | 168 | 5.0 | 10.0 | 0.01 | 0.01 | 0.01 | 89 | 1013.0 |
| 20260904120305 | 77 | 168 | 4.0 | 8.0 | 0.01 | 0.01 | 0.01 | 89 | 1013.0 |
| 20260904120204 | 77 | 168 | 4.0 | 8.0 | 0.01 | 0.01 | 0.01 | 89 | 1013.0 |
| 20260904120105 | 77 | 167 | 4.0 | 8.0 | 0.01 | 0.01 | 0.01 | 89 | 1013.0 |
| 20260904120004 | 77 | 167 | 4.0 | 8.0 | 0.01 | 0.01 | 0.01 | 89 | 1013.1 |
| 20260904115904 | 77 | 166 | 4.0 | 8.0 | 0.00 | 0.00 | 0.00 | 89 | 1013.1 |
| 20260904115804 | 77 | 166 | 4.0 | 8.0 | 0.00 | 0.00 | 0.00 | 89 | 1013.0 |
| 20260904115704 | 77 | 168 | 4.0 | 8.0 | 0.00 | 0.00 | 0.00 | 89 | 1013.0 |
| 20260904115604 | 77 | 168 | 4.0 | 7.0 | 0.00 | 0.00 | 0.00 | 89 | 1013.1 |
| 20260904115505 | 77 | 169 | 4.0 | 7.0 | 0.00 | 0.00 | 0.00 | 89 | 1013.1 |
| 20260904115404 | 77 | 171 | 4.0 | 7.0 | 0.00 | 0.00 | 0.00 | 89 | 1013.0 |
| 20260904115306 | 77 | 172 | 4.0 | 7.0 | 0.00 | 0.00 | 0.00 | 89 | 1013.0 |
| 20260904115204 | 77 | 172 | 4.0 | 7.0 | 0.00 | 0.00 | 0.00 | 89 | 1013.0 |
| 20260904115105 | 77 | 172 | 4.0 | 7.0 | 0.00 | 0.00 | 0.00 | 89 | 1013.0 |
| 20260904115004 | 77 | 170 | 4.0 | 7.0 | 0.00 | 0.00 | 0.00 | 89 | 1013.0 |
| 20260904114905 | 77 | 168 | 3.0 | 7.0 | 0.00 | 0.00 | 0.00 | 89 | 1013.0 |
| 20260904114704 | 77 | 162 | 3.0 | 7.0 | 0.00 | 0.00 | 0.00 | 88 | 1013.0 |
| 20260904114605 | 77 | 158 | 4.0 | 7.0 | 0.00 | 0.00 | 0.00 | 88 | 1013.0 |
| 20260904114504 | 77 | 154 | 3.0 | 7.0 | 0.00 | 0.00 | 0.00 | 88 | 1012.9 |
| 20260904114304 | 77 | 146 | 3.0 | 8.0 | 0.00 | 0.00 | 0.00 | 88 | 1013.0 |
| 20260904114105 | 77 | 140 | 3.0 | 8.0 | 0.00 | 0.00 | 0.00 | 88 | 1013.0 |
| 20260904114004 | 77 | 136 | 3.0 | 8.0 | 0.00 | 0.00 | 0.00 | 88 | 1013.0 |
| 20260904113904 | 78 | 133 | 3.0 | 8.0 | 0.00 | 0.00 | 0.00 | 88 | 1013.1 |
| 20260904113804 | 78 | 132 | 3.0 | 8.0 | 0.00 | 0.00 | 0.00 | 88 | 1013.1 |
| 20260904113704 | 78 | 131 | 3.0 | 8.0 | 0.00 | 0.00 | 0.00 | 88 | 1013.1 |
| 20260904113604 | 78 | 131 | 3.0 | 8.0 | 0.00 | 0.00 | 0.00 | 88 | 1013.1 |
| 20260904113504 | 78 | 130 | 3.0 | 8.0 | 0.00 | 0.00 | 0.00 | 88 | 1013.0 |
| 20260904113304 | 78 | 130 | 3.0 | 8.0 | 0.00 | 0.00 | 0.00 | 88 | 1013.0 |
| 20260904113104 | 78 | 129 | 3.0 | 8.0 | 0.00 | 0.00 | 0.00 | 87 | 1013.0 |
| 20260904113005 | 78 | 128 | 3.0 | 8.0 | 0.00 | 0.00 | 0.00 | 87 | 1013.0 |
| 20260904112806 | 78 | 129 | 3.0 | 8.0 | 0.00 | 0.00 | 0.00 | 87 | 1012.9 |
| 20260904112705 | 78 | 129 | 3.0 | 8.0 | 0.00 | 0.00 | 0.00 | 87 | 1012.9 |
| 20260904112605 | 78 | 128 | 3.0 | 8.0 | 0.00 | 0.00 | 0.00 | 87 | 1012.9 |
| 20260904112504 | 78 | 130 | 3.0 | 8.0 | 0.00 | 0.00 | 0.00 | 87 | 1012.9 |
| 20260904112405 | 78 | 129 | 2.0 | 8.0 | 0.00 | 0.00 | 0.00 | 87 | 1012.9 |
| 20260904112306 | 78 | 129 | 2.0 | 6.0 | 0.00 | 0.00 | 0.00 | 87 | 1012.9 |
| 20260904112204 | 78 | 132 | 2.0 | 7.0 | 0.00 | 0.00 | 0.00 | 87 | 1012.9 |
| 20260904112104 | 78 | 132 | 2.0 | 7.0 | 0.00 | 0.00 | 0.00 | 87 | 1012.9 |
| 20260904112004 | 78 | 132 | 2.0 | 7.0 | 0.00 | 0.00 | 0.00 | 87 | 1012.9 |
| 20260904111905 | 78 | 129 | 2.0 | 7.0 | 0.00 | 0.00 | 0.00 | 87 | 1012.9 |
| 20260904111804 | 78 | 125 | 2.0 | 7.0 | 0.00 | 0.00 | 0.00 | 87 | 1012.9 |
| 20260904111704 | 78 | 121 | 3.0 | 7.0 | 0.00 | 0.00 | 0.00 | 87 | 1012.9 |
| 20260904111605 | 78 | 119 | 3.0 | 7.0 | 0.00 | 0.00 | 0.00 | 87 | 1012.9 |
| 20260904111504 | 78 | 115 | 3.0 | 7.0 | 0.00 | 0.00 | 0.00 | 87 | 1012.9 |
| 20260904111405 | 78 | 116 | 3.0 | 7.0 | 0.00 | 0.00 | 0.00 | 87 | 1012.9 |
| 20260904111304 | 78 | 114 | 3.0 | 7.0 | 0.00 | 0.00 | 0.00 | 87 | 1012.9 |
| 20260904111204 | 78 | 110 | 3.0 | 6.0 | 0.00 | 0.00 | 0.00 | 86 | 1012.9 |
| 20260904111104 | 78 | 108 | 3.0 | 6.0 | 0.00 | 0.00 | 0.00 | 86 | 1012.9 |
| 20260904110904 | 78 | 108 | 3.0 | 6.0 | 0.00 | 0.00 | 0.00 | 86 | 1012.9 |
| 20260904110805 | 78 | 107 | 3.0 | 6.0 | 0.00 | 0.00 | 0.00 | 86 | 1012.9 |
| 20260904110605 | 78 | 105 | 2.0 | 6.0 | 0.00 | 0.00 | 0.00 | 86 | 1012.9 |
| 20260904110504 | 78 | 102 | 2.0 | 6.0 | 0.00 | 0.00 | 0.00 | 86 | 1013.0 |
| 20260904110405 | 78 | 98 | 2.0 | 6.0 | 0.00 | 0.00 | 0.00 | 86 | 1013.0 |
| 20260904110304 | 78 | 94 | 2.0 | 4.0 | 0.00 | 0.00 | 0.00 | 86 | 1013.0 |
| 20260904110206 | 78 | 92 | 2.0 | 4.0 | 0.00 | 0.00 | 0.00 | 86 | 1012.9 |
| 20260904110005 | 78 | 91 | 3.0 | 5.0 | 0.00 | 0.00 | 0.00 | 85 | 1013.0 |
| 20260904105904 | 78 | 91 | 3.0 | 5.0 | 0.00 | 0.00 | 0.00 | 85 | 1013.0 |
| 20260904105804 | 78 | 91 | 3.0 | 5.0 | 0.00 | 0.00 | 0.00 | 85 | 1013.0 |
| 20260904105704 | 78 | 92 | 3.0 | 5.0 | 0.00 | 0.00 | 0.00 | 85 | 1013.0 |
| 20260904105504 | 78 | 93 | 2.0 | 5.0 | 0.00 | 0.00 | 0.00 | 85 | 1013.0 |
| 20260904105404 | 78 | 95 | 2.0 | 5.0 | 0.00 | 0.00 | 0.00 | 84 | 1013.0 |
| 20260904105306 | 79 | 97 | 2.0 | 5.0 | 0.00 | 0.00 | 0.00 | 84 | 1012.9 |
| 20260904105204 | 79 | 100 | 2.0 | 5.0 | 0.00 | 0.00 | 0.00 | 84 | 1012.9 |
| 20260904104904 | 79 | 107 | 2.0 | 5.0 | 0.00 | 0.00 | 0.00 | 84 | 1012.8 |
| 20260904104804 | 79 | 111 | 2.0 | 5.0 | 0.00 | 0.00 | 0.00 | 83 | 1012.7 |
| 20260904104704 | 79 | 114 | 2.0 | 5.0 | 0.00 | 0.00 | 0.00 | 83 | 1012.7 |
| 20260904104604 | 79 | 115 | 3.0 | 5.0 | 0.00 | 0.00 | 0.00 | 83 | 1012.7 |
| 20260904104504 | 79 | 116 | 3.0 | 5.0 | 0.00 | 0.00 | 0.00 | 83 | 1012.7 |
| 20260904104404 | 79 | 117 | 3.0 | 5.0 | 0.00 | 0.00 | 0.00 | 83 | 1012.6 |
| 20260904104304 | 79 | 119 | 3.0 | 6.0 | 0.00 | 0.00 | 0.00 | 82 | 1012.6 |
| 20260904104204 | 79 | 120 | 3.0 | 6.0 | 0.00 | 0.00 | 0.00 | 82 | 1012.6 |
| 20260904104104 | 79 | 120 | 3.0 | 6.0 | 0.00 | 0.00 | 0.00 | 82 | 1012.6 |
| 20260904103805 | 79 | 126 | 3.0 | 6.0 | 0.00 | 0.00 | 0.00 | 82 | 1012.6 |
| 20260904103704 | 79 | 127 | 3.0 | 6.0 | 0.00 | 0.00 | 0.00 | 82 | 1012.6 |
| 20260904103604 | 79 | 127 | 3.0 | 6.0 | 0.00 | 0.00 | 0.00 | 82 | 1012.6 |
| 20260904103504 | 79 | 128 | 3.0 | 6.0 | 0.00 | 0.00 | 0.00 | 82 | 1012.5 |
| 20260904103404 | 79 | 129 | 2.0 | 8.0 | 0.00 | 0.00 | 0.00 | 82 | 1012.5 |
| 20260904103303 | 79 | 130 | 2.0 | 8.0 | 0.00 | 0.00 | 0.00 | 82 | 1012.4 |
| 20260904103204 | 79 | 129 | 2.0 | 8.0 | 0.00 | 0.00 | 0.00 | 82 | 1012.4 |
| 20260904103104 | 79 | 132 | 2.0 | 8.0 | 0.00 | 0.00 | 0.00 | 82 | 1012.4 |
| 20260904103004 | 79 | 134 | 2.0 | 8.0 | 0.00 | 0.00 | 0.00 | 82 | 1012.5 |
| 20260904102904 | 79 | 134 | 2.0 | 8.0 | 0.00 | 0.00 | 0.00 | 82 | 1012.4 |
| 20260904102805 | 79 | 139 | 2.0 | 8.0 | 0.00 | 0.00 | 0.00 | 82 | 1012.4 |
| 20260904102704 | 79 | 139 | 3.0 | 8.0 | 0.00 | 0.00 | 0.00 | 82 | 1012.5 |
| 20260904102504 | 79 | 141 | 3.0 | 8.0 | 0.00 | 0.00 | 0.00 | 82 | 1012.4 |
| 20260904102306 | 79 | 143 | 3.0 | 8.0 | 0.00 | 0.00 | 0.00 | 82 | 1012.4 |
| 20260904102204 | 79 | 145 | 3.0 | 8.0 | 0.00 | 0.00 | 0.00 | 82 | 1012.4 |
| 20260904102103 | 79 | 145 | 3.0 | 8.0 | 0.00 | 0.00 | 0.00 | 82 | 1012.4 |
| 20260904102004 | 79 | 144 | 4.0 | 8.0 | 0.00 | 0.00 | 0.00 | 82 | 1012.3 |
| 20260904101905 | 79 | 147 | 4.0 | 8.0 | 0.00 | 0.00 | 0.00 | 82 | 1012.3 |
| 20260904101806 | 79 | 146 | 4.0 | 8.0 | 0.00 | 0.00 | 0.00 | 82 | 1012.3 |
| 20260904101504 | 79 | 150 | 4.0 | 9.0 | 0.00 | 0.00 | 0.00 | 82 | 1012.3 |
| 20260904101404 | 79 | 150 | 4.0 | 9.0 | 0.00 | 0.00 | 0.00 | 82 | 1012.2 |
| 20260904101204 | 79 | 152 | 5.0 | 9.0 | 0.00 | 0.00 | 0.00 | 82 | 1012.2 |
| 20260904101104 | 79 | 152 | 5.0 | 9.0 | 0.00 | 0.00 | 0.00 | 82 | 1012.2 |
| 20260904101005 | 79 | 154 | 5.0 | 9.0 | 0.00 | 0.00 | 0.00 | 82 | 1012.1 |
| 20260904100904 | 79 | 154 | 4.0 | 9.0 | 0.00 | 0.00 | 0.00 | 82 | 1012.1 |
| 20260904100804 | 79 | 155 | 4.0 | 9.0 | 0.00 | 0.00 | 0.00 | 82 | 1012.0 |
| 20260904100604 | 79 | 159 | 4.0 | 8.0 | 0.00 | 0.00 | 0.00 | 82 | 1012.0 |
| 20260904100504 | 79 | 159 | 5.0 | 8.0 | 0.00 | 0.00 | 0.00 | 82 | 1012.1 |
| 20260904100304 | 79 | 161 | 5.0 | 8.0 | 0.00 | 0.00 | 0.00 | 82 | 1012.0 |
| 20260904100204 | 79 | 164 | 5.0 | 8.0 | 0.00 | 0.00 | 0.00 | 82 | 1012.0 |
| 20260904100104 | 79 | 165 | 5.0 | 8.0 | 0.00 | 0.00 | 0.00 | 82 | 1012.0 |
| 20260904100004 | 79 | 165 | 5.0 | 10.0 | 0.00 | 0.00 | 0.00 | 82 | 1012.0 |
| 20260904095904 | 79 | 167 | 6.0 | 10.0 | 0.00 | 0.00 | 0.00 | 82 | 1012.0 |
| 20260904095804 | 79 | 168 | 6.0 | 10.0 | 0.00 | 0.00 | 0.00 | 82 | 1012.0 |
| 20260904095705 | 79 | 169 | 6.0 | 10.0 | 0.00 | 0.00 | 0.00 | 82 | 1011.9 |
| 20260904095505 | 79 | 170 | 6.0 | 10.0 | 0.00 | 0.00 | 0.00 | 82 | 1011.9 |
| 20260904095404 | 79 | 171 | 5.0 | 10.0 | 0.00 | 0.00 | 0.00 | 82 | 1011.9 |
| 20260904095306 | 79 | 171 | 5.0 | 10.0 | 0.00 | 0.00 | 0.00 | 82 | 1012.0 |
| 20260904095205 | 79 | 171 | 5.0 | 10.0 | 0.00 | 0.00 | 0.00 | 82 | 1011.9 |
| 20260904095104 | 79 | 170 | 5.0 | 10.0 | 0.00 | 0.00 | 0.00 | 82 | 1011.9 |
| 20260904095005 | 79 | 171 | 4.0 | 8.0 | 0.00 | 0.00 | 0.00 | 82 | 1012.0 |
| 20260904094904 | 79 | 170 | 4.0 | 8.0 | 0.00 | 0.00 | 0.00 | 82 | 1012.0 |
| 20260904094805 | 79 | 167 | 4.0 | 8.0 | 0.00 | 0.00 | 0.00 | 82 | 1012.0 |
| 20260904094704 | 79 | 165 | 4.0 | 8.0 | 0.00 | 0.00 | 0.00 | 82 | 1012.0 |
| 20260904094604 | 79 | 164 | 4.0 | 8.0 | 0.00 | 0.00 | 0.00 | 82 | 1012.0 |
| 20260904094405 | 79 | 163 | 4.0 | 8.0 | 0.00 | 0.00 | 0.00 | 82 | 1012.1 |
| 20260904094304 | 79 | 163 | 4.0 | 8.0 | 0.00 | 0.00 | 0.00 | 82 | 1012.1 |
| 20260904094205 | 79 | 163 | 4.0 | 9.0 | 0.00 | 0.00 | 0.00 | 82 | 1012.1 |
| 20260904094104 | 79 | 165 | 4.0 | 9.0 | 0.00 | 0.00 | 0.00 | 82 | 1012.1 |
| 20260904094005 | 79 | 166 | 5.0 | 9.0 | 0.00 | 0.00 | 0.00 | 82 | 1012.1 |
| 20260904093904 | 79 | 167 | 5.0 | 9.0 | 0.00 | 0.00 | 0.00 | 82 | 1012.1 |
| 20260904093703 | 79 | 170 | 5.0 | 9.0 | 0.00 | 0.00 | 0.00 | 82 | 1012.0 |
| 20260904093604 | 79 | 170 | 5.0 | 9.0 | 0.00 | 0.00 | 0.00 | 82 | 1012.0 |
| 20260904093505 | 79 | 170 | 5.0 | 9.0 | 0.00 | 0.00 | 0.00 | 82 | 1012.0 |
| 20260904093404 | 79 | 169 | 6.0 | 9.0 | 0.00 | 0.00 | 0.00 | 82 | 1012.0 |
| 20260904093304 | 79 | 169 | 6.0 | 9.0 | 0.00 | 0.00 | 0.00 | 82 | 1012.0 |
| 20260904093204 | 79 | 170 | 6.0 | 9.0 | 0.00 | 0.00 | 0.00 | 82 | 1012.0 |
| 20260904093104 | 79 | 169 | 6.0 | 9.0 | 0.00 | 0.00 | 0.00 | 82 | 1012.1 |
| 20260904093004 | 79 | 169 | 6.0 | 9.0 | 0.00 | 0.00 | 0.00 | 82 | 1012.0 |
| 20260904092904 | 79 | 169 | 6.0 | 9.0 | 0.00 | 0.00 | 0.00 | 82 | 1012.1 |
| 20260904092804 | 79 | 169 | 6.0 | 9.0 | 0.00 | 0.00 | 0.00 | 82 | 1012.1 |
| 20260904092704 | 79 | 168 | 6.0 | 9.0 | 0.00 | 0.00 | 0.00 | 82 | 1012.1 |
| 20260904092604 | 79 | 169 | 6.0 | 10.0 | 0.00 | 0.00 | 0.00 | 82 | 1012.1 |
| 20260904092504 | 79 | 171 | 6.0 | 10.0 | 0.00 | 0.00 | 0.00 | 82 | 1012.0 |
| 20260904092404 | 79 | 172 | 6.0 | 10.0 | 0.00 | 0.00 | 0.00 | 82 | 1012.0 |
| 20260904092306 | 79 | 172 | 5.0 | 10.0 | 0.00 | 0.00 | 0.00 | 82 | 1012.1 |
| 20260904092204 | 79 | 173 | 5.0 | 10.0 | 0.00 | 0.00 | 0.00 | 82 | 1012.1 |
| 20260904092104 | 79 | 174 | 5.0 | 10.0 | 0.00 | 0.00 | 0.00 | 82 | 1012.1 |
| 20260904092005 | 79 | 175 | 5.0 | 10.0 | 0.00 | 0.00 | 0.00 | 82 | 1012.1 |
| 20260904091903 | 79 | 173 | 5.0 | 10.0 | 0.00 | 0.00 | 0.00 | 82 | 1012.1 |
| 20260904091804 | 79 | 174 | 5.0 | 10.0 | 0.00 | 0.00 | 0.00 | 82 | 1012.0 |
| 20260904091604 | 79 | 177 | 5.0 | 10.0 | 0.00 | 0.00 | 0.00 | 82 | 1012.1 |
| 20260904091504 | 79 | 178 | 4.0 | 10.0 | 0.00 | 0.00 | 0.00 | 82 | 1012.1 |
| 20260904091405 | 79 | 182 | 4.0 | 9.0 | 0.00 | 0.00 | 0.00 | 82 | 1012.0 |
| 20260904091304 | 79 | 184 | 4.0 | 9.0 | 0.00 | 0.00 | 0.00 | 82 | 1012.1 |
| 20260904091204 | 79 | 186 | 4.0 | 9.0 | 0.00 | 0.00 | 0.00 | 82 | 1012.1 |
| 20260904091104 | 79 | 188 | 3.0 | 9.0 | 0.00 | 0.00 | 0.00 | 82 | 1012.1 |
| 20260904091004 | 79 | 189 | 3.0 | 8.0 | 0.00 | 0.00 | 0.00 | 82 | 1012.2 |
| 20260904090904 | 79 | 192 | 4.0 | 8.0 | 0.00 | 0.00 | 0.00 | 82 | 1012.2 |
| 20260904090804 | 79 | 192 | 4.0 | 8.0 | 0.00 | 0.00 | 0.00 | 82 | 1012.2 |
| 20260904090704 | 79 | 192 | 4.0 | 12.0 | 0.00 | 0.00 | 0.00 | 82 | 1012.1 |
| 20260904090605 | 79 | 189 | 4.0 | 12.0 | 0.00 | 0.00 | 0.00 | 82 | 1012.1 |
| 20260904090404 | 79 | 185 | 4.0 | 12.0 | 0.00 | 0.00 | 0.00 | 82 | 1012.1 |
| 20260904090204 | 80 | 183 | 4.0 | 12.0 | 0.00 | 0.00 | 0.00 | 82 | 1012.1 |
| 20260904090104 | 80 | 181 | 4.0 | 12.0 | 0.00 | 0.00 | 0.00 | 82 | 1012.1 |
| 20260904085903 | 79 | 181 | 5.0 | 12.0 | 0.00 | 0.00 | 0.00 | 82 | 1012.1 |
| 20260904085804 | 79 | 181 | 5.0 | 12.0 | 0.00 | 0.00 | 0.00 | 82 | 1012.1 |
| 20260904085704 | 80 | 183 | 5.0 | 11.0 | 0.00 | 0.00 | 0.00 | 82 | 1012.1 |
| 20260904085604 | 80 | 184 | 4.0 | 8.0 | 0.00 | 0.00 | 0.00 | 82 | 1012.1 |
| 20260904085503 | 80 | 186 | 4.0 | 8.0 | 0.00 | 0.00 | 0.00 | 82 | 1012.1 |
| 20260904085404 | 80 | 186 | 4.0 | 8.0 | 0.00 | 0.00 | 0.00 | 82 | 1012.1 |
| 20260904085306 | 80 | 187 | 5.0 | 8.0 | 0.00 | 0.00 | 0.00 | 81 | 1012.1 |
| 20260904085004 | 80 | 186 | 6.0 | 10.0 | 0.00 | 0.00 | 0.00 | 81 | 1012.0 |
| 20260904084904 | 80 | 185 | 6.0 | 10.0 | 0.00 | 0.00 | 0.00 | 81 | 1012.0 |
| 20260904084805 | 80 | 186 | 6.0 | 10.0 | 0.00 | 0.00 | 0.00 | 81 | 1012.0 |
| 20260904084704 | 80 | 183 | 6.0 | 10.0 | 0.00 | 0.00 | 0.00 | 81 | 1012.0 |
| 20260904084504 | 80 | 183 | 7.0 | 10.0 | 0.00 | 0.00 | 0.00 | 81 | 1012.0 |
| 20260904084404 | 80 | 182 | 7.0 | 11.0 | 0.00 | 0.00 | 0.00 | 80 | 1012.0 |
| 20260904084304 | 80 | 181 | 6.0 | 11.0 | 0.00 | 0.00 | 0.00 | 80 | 1012.0 |
| 20260904084204 | 80 | 182 | 6.0 | 11.0 | 0.00 | 0.00 | 0.00 | 80 | 1012.0 |
| 20260904084105 | 80 | 182 | 6.0 | 11.0 | 0.00 | 0.00 | 0.00 | 80 | 1012.0 |
| 20260904084004 | 80 | 181 | 6.0 | 11.0 | 0.00 | 0.00 | 0.00 | 80 | 1012.0 |
| 20260904083804 | 80 | 178 | 6.0 | 11.0 | 0.00 | 0.00 | 0.00 | 80 | 1012.0 |
| 20260904083604 | 80 | 177 | 6.0 | 11.0 | 0.00 | 0.00 | 0.00 | 80 | 1012.0 |
| 20260904083504 | 80 | 176 | 6.0 | 11.0 | 0.00 | 0.00 | 0.00 | 80 | 1012.0 |
| 20260904083404 | 80 | 176 | 6.0 | 11.0 | 0.00 | 0.00 | 0.00 | 80 | 1012.0 |
| 20260904083303 | 80 | 175 | 6.0 | 11.0 | 0.00 | 0.00 | 0.00 | 80 | 1012.1 |
| 20260904083204 | 80 | 174 | 6.0 | 11.0 | 0.00 | 0.00 | 0.00 | 80 | 1012.1 |
| 20260904083104 | 80 | 173 | 6.0 | 11.0 | 0.00 | 0.00 | 0.00 | 80 | 1012.1 |
| 20260904082904 | 80 | 171 | 6.0 | 11.0 | 0.00 | 0.00 | 0.00 | 80 | 1012.1 |
| 20260904082804 | 80 | 170 | 6.0 | 11.0 | 0.00 | 0.00 | 0.00 | 80 | 1012.1 |
| 20260904082704 | 80 | 170 | 6.0 | 11.0 | 0.00 | 0.00 | 0.00 | 80 | 1012.1 |
| 20260904082605 | 80 | 169 | 5.0 | 9.0 | 0.00 | 0.00 | 0.00 | 80 | 1012.1 |
| 20260904082505 | 80 | 170 | 5.0 | 9.0 | 0.00 | 0.00 | 0.00 | 80 | 1012.1 |
| 20260904082404 | 80 | 171 | 5.0 | 9.0 | 0.00 | 0.00 | 0.00 | 80 | 1012.0 |
| 20260904082306 | 80 | 170 | 6.0 | 9.0 | 0.00 | 0.00 | 0.00 | 80 | 1012.0 |
| 20260904082204 | 80 | 170 | 6.0 | 11.0 | 0.00 | 0.00 | 0.00 | 80 | 1012.0 |
| 20260904082104 | 80 | 171 | 6.0 | 11.0 | 0.00 | 0.00 | 0.00 | 80 | 1012.1 |
| 20260904082004 | 80 | 171 | 6.0 | 11.0 | 0.00 | 0.00 | 0.00 | 80 | 1012.0 |
| 20260904081903 | 80 | 171 | 6.0 | 11.0 | 0.00 | 0.00 | 0.00 | 80 | 1012.0 |
| 20260904081704 | 80 | 170 | 6.0 | 11.0 | 0.00 | 0.00 | 0.00 | 80 | 1012.1 |
| 20260904081604 | 80 | 170 | 6.0 | 11.0 | 0.00 | 0.00 | 0.00 | 80 | 1012.1 |
| 20260904081504 | 80 | 171 | 6.0 | 11.0 | 0.00 | 0.00 | 0.00 | 80 | 1012.1 |
| 20260904081404 | 80 | 169 | 6.0 | 11.0 | 0.00 | 0.00 | 0.00 | 80 | 1012.2 |
| 20260904081304 | 80 | 169 | 5.0 | 11.0 | 0.00 | 0.00 | 0.00 | 80 | 1012.2 |
| 20260904081204 | 80 | 169 | 5.0 | 10.0 | 0.00 | 0.00 | 0.00 | 80 | 1012.2 |
| 20260904081005 | 80 | 166 | 5.0 | 10.0 | 0.00 | 0.00 | 0.00 | 80 | 1012.2 |
| 20260904080705 | 80 | 164 | 5.0 | 10.0 | 0.00 | 0.00 | 0.00 | 80 | 1012.2 |
| 20260904080604 | 80 | 162 | 5.0 | 10.0 | 0.00 | 0.00 | 0.00 | 80 | 1012.2 |
| 20260904080504 | 80 | 157 | 5.0 | 10.0 | 0.00 | 0.00 | 0.00 | 80 | 1012.2 |
| 20260904080404 | 80 | 156 | 5.0 | 10.0 | 0.00 | 0.00 | 0.00 | 80 | 1012.2 |
| 20260904080304 | 80 | 155 | 5.0 | 9.0 | 0.00 | 0.00 | 0.00 | 80 | 1012.2 |
| 20260904080104 | 80 | 154 | 5.0 | 9.0 | 0.00 | 0.00 | 0.00 | 80 | 1012.2 |
| 20260904080004 | 80 | 154 | 5.0 | 9.0 | 0.00 | 0.00 | 0.00 | 80 | 1012.2 |
| 20260904075804 | 80 | 151 | 5.0 | 9.0 | 0.00 | 0.00 | 0.00 | 80 | 1012.1 |
| 20260904075704 | 80 | 153 | 5.0 | 8.0 | 0.00 | 0.00 | 0.00 | 80 | 1012.1 |
| 20260904075605 | 80 | 154 | 5.0 | 8.0 | 0.00 | 0.00 | 0.00 | 80 | 1012.1 |
| 20260904075504 | 80 | 156 | 5.0 | 8.0 | 0.00 | 0.00 | 0.00 | 80 | 1012.1 |
| 20260904075404 | 80 | 157 | 5.0 | 8.0 | 0.00 | 0.00 | 0.00 | 80 | 1012.1 |
| 20260904075306 | 80 | 159 | 5.0 | 9.0 | 0.00 | 0.00 | 0.00 | 80 | 1012.2 |
| 20260904075203 | 80 | 161 | 5.0 | 9.0 | 0.00 | 0.00 | 0.00 | 80 | 1012.2 |
| 20260904075104 | 80 | 161 | 5.0 | 9.0 | 0.00 | 0.00 | 0.00 | 80 | 1012.2 |
| 20260904075004 | 80 | 161 | 5.0 | 11.0 | 0.00 | 0.00 | 0.00 | 80 | 1012.2 |
| 20260904074904 | 80 | 162 | 6.0 | 11.0 | 0.00 | 0.00 | 0.00 | 80 | 1012.2 |
| 20260904074804 | 80 | 162 | 6.0 | 11.0 | 0.00 | 0.00 | 0.00 | 80 | 1012.2 |
| 20260904074704 | 80 | 163 | 6.0 | 12.0 | 0.00 | 0.00 | 0.00 | 80 | 1012.2 |
| 20260904074604 | 80 | 164 | 6.0 | 12.0 | 0.00 | 0.00 | 0.00 | 80 | 1012.1 |
| 20260904074504 | 80 | 164 | 6.0 | 12.0 | 0.00 | 0.00 | 0.00 | 80 | 1012.1 |
| 20260904074404 | 80 | 164 | 6.0 | 12.0 | 0.00 | 0.00 | 0.00 | 80 | 1012.2 |
| 20260904074305 | 80 | 163 | 6.0 | 12.0 | 0.00 | 0.00 | 0.00 | 80 | 1012.1 |
| 20260904074204 | 80 | 164 | 6.0 | 12.0 | 0.00 | 0.00 | 0.00 | 80 | 1012.1 |
| 20260904074104 | 80 | 166 | 6.0 | 12.0 | 0.00 | 0.00 | 0.00 | 80 | 1012.1 |
| 20260904073804 | 80 | 168 | 7.0 | 12.0 | 0.00 | 0.00 | 0.00 | 80 | 1012.2 |
| 20260904073703 | 80 | 168 | 7.0 | 11.0 | 0.00 | 0.00 | 0.00 | 80 | 1012.2 |
| 20260904073604 | 80 | 170 | 7.0 | 11.0 | 0.00 | 0.00 | 0.00 | 80 | 1012.2 |
| 20260904073503 | 80 | 171 | 7.0 | 11.0 | 0.00 | 0.00 | 0.00 | 80 | 1012.3 |
| 20260904073404 | 80 | 172 | 7.0 | 11.0 | 0.00 | 0.00 | 0.00 | 80 | 1012.2 |
| 20260904073304 | 80 | 173 | 7.0 | 11.0 | 0.00 | 0.00 | 0.00 | 80 | 1012.2 |
| 20260904073204 | 80 | 173 | 7.0 | 11.0 | 0.00 | 0.00 | 0.00 | 80 | 1012.2 |
| 20260904073103 | 80 | 171 | 7.0 | 11.0 | 0.00 | 0.00 | 0.00 | 80 | 1012.2 |
| 20260904073004 | 80 | 172 | 7.0 | 11.0 | 0.00 | 0.00 | 0.00 | 80 | 1012.2 |
| 20260904072904 | 80 | 172 | 7.0 | 11.0 | 0.00 | 0.00 | 0.00 | 80 | 1012.2 |
| 20260904072804 | 80 | 172 | 7.0 | 11.0 | 0.00 | 0.00 | 0.00 | 80 | 1012.2 |
| 20260904072703 | 80 | 173 | 6.0 | 11.0 | 0.00 | 0.00 | 0.00 | 80 | 1012.2 |
| 20260904072604 | 80 | 172 | 6.0 | 11.0 | 0.00 | 0.00 | 0.00 | 80 | 1012.2 |
| 20260904072404 | 80 | 170 | 6.0 | 11.0 | 0.00 | 0.00 | 0.00 | 80 | 1012.2 |
| 20260904072306 | 80 | 171 | 6.0 | 11.0 | 0.00 | 0.00 | 0.00 | 80 | 1012.2 |
| 20260904072104 | 80 | 173 | 5.0 | 9.0 | 0.00 | 0.00 | 0.00 | 80 | 1012.2 |
| 20260904072004 | 80 | 173 | 5.0 | 9.0 | 0.00 | 0.00 | 0.00 | 80 | 1012.2 |
| 20260904071903 | 80 | 171 | 5.0 | 9.0 | 0.00 | 0.00 | 0.00 | 80 | 1012.2 |
| 20260904071804 | 80 | 173 | 5.0 | 10.0 | 0.00 | 0.00 | 0.00 | 80 | 1012.2 |
| 20260904071704 | 80 | 173 | 5.0 | 10.0 | 0.00 | 0.00 | 0.00 | 80 | 1012.3 |
| 20260904071403 | 80 | 171 | 5.0 | 10.0 | 0.00 | 0.00 | 0.00 | 80 | 1012.3 |
| 20260904071304 | 80 | 169 | 5.0 | 10.0 | 0.00 | 0.00 | 0.00 | 80 | 1012.3 |
| 20260904071203 | 80 | 168 | 5.0 | 10.0 | 0.00 | 0.00 | 0.00 | 80 | 1012.3 |
| 20260904071104 | 80 | 167 | 5.0 | 10.0 | 0.00 | 0.00 | 0.00 | 80 | 1012.2 |
| 20260904071006 | 80 | 167 | 5.0 | 10.0 | 0.00 | 0.00 | 0.00 | 80 | 1012.3 |
| 20260904070904 | 80 | 166 | 5.0 | 10.0 | 0.00 | 0.00 | 0.00 | 80 | 1012.3 |
| 20260904070804 | 80 | 164 | 5.0 | 10.0 | 0.00 | 0.00 | 0.00 | 80 | 1012.3 |
| 20260904070704 | 80 | 164 | 6.0 | 11.0 | 0.00 | 0.00 | 0.00 | 80 | 1012.2 |
| 20260904070604 | 80 | 164 | 6.0 | 11.0 | 0.00 | 0.00 | 0.00 | 80 | 1012.3 |
| 20260904070503 | 80 | 161 | 6.0 | 11.0 | 0.00 | 0.00 | 0.00 | 80 | 1012.2 |
| 20260904070303 | 80 | 163 | 6.0 | 11.0 | 0.00 | 0.00 | 0.00 | 79 | 1012.3 |
| 20260904070204 | 80 | 162 | 6.0 | 11.0 | 0.00 | 0.00 | 0.00 | 79 | 1012.3 |
| 20260904070104 | 80 | 163 | 5.0 | 11.0 | 0.00 | 0.00 | 0.00 | 79 | 1012.3 |
| 20260904070004 | 80 | 163 | 5.0 | 11.0 | 0.00 | 0.00 | 0.00 | 79 | 1012.3 |
| 20260904065904 | 80 | 165 | 5.0 | 11.0 | 0.00 | 0.00 | 0.00 | 79 | 1012.3 |
| 20260904065804 | 80 | 166 | 5.0 | 11.0 | 0.00 | 0.00 | 0.00 | 79 | 1012.3 |
| 20260904065704 | 80 | 166 | 5.0 | 9.0 | 0.00 | 0.00 | 0.00 | 79 | 1012.4 |
| 20260904065603 | 80 | 165 | 5.0 | 9.0 | 0.00 | 0.00 | 0.00 | 79 | 1012.4 |
| 20260904065504 | 80 | 166 | 5.0 | 9.0 | 0.00 | 0.00 | 0.00 | 79 | 1012.4 |
| 20260904065404 | 80 | 166 | 5.0 | 9.0 | 0.00 | 0.00 | 0.00 | 79 | 1012.4 |
| 20260904065306 | 80 | 166 | 5.0 | 9.0 | 0.00 | 0.00 | 0.00 | 79 | 1012.5 |
| 20260904065204 | 80 | 166 | 6.0 | 9.0 | 0.00 | 0.00 | 0.00 | 79 | 1012.5 |
| 20260904065104 | 80 | 166 | 6.0 | 10.0 | 0.00 | 0.00 | 0.00 | 79 | 1012.4 |
| 20260904065004 | 80 | 165 | 6.0 | 10.0 | 0.00 | 0.00 | 0.00 | 79 | 1012.4 |
| 20260904064903 | 80 | 164 | 6.0 | 10.0 | 0.00 | 0.00 | 0.00 | 79 | 1012.5 |
| 20260904064804 | 80 | 163 | 6.0 | 10.0 | 0.00 | 0.00 | 0.00 | 79 | 1012.4 |
| 20260904064703 | 80 | 161 | 6.0 | 10.0 | 0.00 | 0.00 | 0.00 | 79 | 1012.4 |
| 20260904064504 | 80 | 160 | 5.0 | 10.0 | 0.00 | 0.00 | 0.00 | 79 | 1012.4 |
| 20260904064404 | 80 | 160 | 5.0 | 10.0 | 0.00 | 0.00 | 0.00 | 79 | 1012.5 |
| 20260904064304 | 80 | 159 | 5.0 | 10.0 | 0.00 | 0.00 | 0.00 | 79 | 1012.5 |
| 20260904064103 | 80 | 158 | 5.0 | 9.0 | 0.00 | 0.00 | 0.00 | 79 | 1012.5 |
| 20260904064004 | 80 | 157 | 5.0 | 8.0 | 0.00 | 0.00 | 0.00 | 79 | 1012.5 |
| 20260904063905 | 80 | 157 | 5.0 | 9.0 | 0.00 | 0.00 | 0.00 | 79 | 1012.5 |
| 20260904063803 | 80 | 155 | 5.0 | 12.0 | 0.00 | 0.00 | 0.00 | 79 | 1012.5 |
| 20260904063705 | 80 | 157 | 5.0 | 12.0 | 0.00 | 0.00 | 0.00 | 79 | 1012.5 |
| 20260904063504 | 80 | 158 | 5.0 | 12.0 | 0.00 | 0.00 | 0.00 | 79 | 1012.5 |
| 20260904063403 | 80 | 158 | 5.0 | 12.0 | 0.00 | 0.00 | 0.00 | 79 | 1012.5 |
| 20260904063204 | 80 | 157 | 5.0 | 12.0 | 0.00 | 0.00 | 0.00 | 79 | 1012.5 |
| 20260904063105 | 80 | 156 | 5.0 | 12.0 | 0.00 | 0.00 | 0.00 | 79 | 1012.5 |
| 20260904063004 | 80 | 157 | 6.0 | 12.0 | 0.00 | 0.00 | 0.00 | 79 | 1012.5 |
| 20260904062904 | 80 | 154 | 6.0 | 13.0 | 0.00 | 0.00 | 0.00 | 79 | 1012.5 |
| 20260904062804 | 80 | 155 | 6.0 | 13.0 | 0.00 | 0.00 | 0.00 | 79 | 1012.5 |
| 20260904062605 | 80 | 154 | 6.0 | 13.0 | 0.00 | 0.00 | 0.00 | 79 | 1012.5 |
| 20260904062405 | 80 | 155 | 7.0 | 13.0 | 0.00 | 0.00 | 0.00 | 79 | 1012.4 |
| 20260904062306 | 80 | 155 | 7.0 | 13.0 | 0.00 | 0.00 | 0.00 | 79 | 1012.4 |
| 20260904062204 | 80 | 154 | 7.0 | 13.0 | 0.00 | 0.00 | 0.00 | 79 | 1012.4 |
| 20260904062103 | 80 | 154 | 7.0 | 13.0 | 0.00 | 0.00 | 0.00 | 79 | 1012.4 |
| 20260904062004 | 80 | 155 | 7.0 | 14.0 | 0.00 | 0.00 | 0.00 | 79 | 1012.4 |
| 20260904061904 | 80 | 157 | 7.0 | 14.0 | 0.00 | 0.00 | 0.00 | 79 | 1012.4 |
| 20260904061804 | 80 | 156 | 7.0 | 14.0 | 0.00 | 0.00 | 0.00 | 79 | 1012.4 |
| 20260904061704 | 80 | 156 | 6.0 | 14.0 | 0.00 | 0.00 | 0.00 | 79 | 1012.4 |
| 20260904061604 | 80 | 156 | 7.0 | 14.0 | 0.00 | 0.00 | 0.00 | 79 | 1012.4 |
| 20260904061504 | 80 | 157 | 7.0 | 14.0 | 0.00 | 0.00 | 0.00 | 79 | 1012.4 |
| 20260904061403 | 80 | 156 | 7.0 | 14.0 | 0.00 | 0.00 | 0.00 | 79 | 1012.4 |
| 20260904061204 | 80 | 156 | 6.0 | 14.0 | 0.00 | 0.00 | 0.00 | 79 | 1012.4 |
| 20260904061103 | 80 | 156 | 6.0 | 14.0 | 0.00 | 0.00 | 0.00 | 79 | 1012.4 |
| 20260904061004 | 80 | 154 | 6.0 | 12.0 | 0.00 | 0.00 | 0.00 | 79 | 1012.4 |
| 20260904060904 | 80 | 153 | 6.0 | 12.0 | 0.00 | 0.00 | 0.00 | 79 | 1012.4 |
| 20260904060804 | 80 | 154 | 7.0 | 15.0 | 0.00 | 0.00 | 0.00 | 79 | 1012.4 |
| 20260904060303 | 80 | 154 | 7.0 | 15.0 | 0.00 | 0.00 | 0.00 | 79 | 1012.4 |
| 20260904060104 | 80 | 153 | 7.0 | 15.0 | 0.00 | 0.00 | 0.00 | 79 | 1012.4 |
| 20260904055904 | 80 | 154 | 6.0 | 15.0 | 0.00 | 0.00 | 0.00 | 79 | 1012.3 |
| 20260904055704 | 80 | 152 | 6.0 | 13.0 | 0.00 | 0.00 | 0.00 | 79 | 1012.4 |
| 20260904055604 | 80 | 154 | 6.0 | 13.0 | 0.00 | 0.00 | 0.00 | 79 | 1012.4 |
| 20260904055505 | 80 | 153 | 5.0 | 13.0 | 0.00 | 0.00 | 0.00 | 79 | 1012.4 |
| 20260904055306 | 80 | 152 | 5.0 | 11.0 | 0.00 | 0.00 | 0.00 | 79 | 1012.4 |
| 20260904055204 | 80 | 153 | 5.0 | 11.0 | 0.00 | 0.00 | 0.00 | 79 | 1012.3 |
| 20260904055105 | 80 | 154 | 6.0 | 10.0 | 0.00 | 0.00 | 0.00 | 79 | 1012.3 |
| 20260904055005 | 80 | 154 | 6.0 | 14.0 | 0.00 | 0.00 | 0.00 | 79 | 1012.3 |
| 20260904054904 | 80 | 156 | 6.0 | 14.0 | 0.00 | 0.00 | 0.00 | 79 | 1012.3 |
| 20260904054803 | 80 | 157 | 7.0 | 14.0 | 0.00 | 0.00 | 0.00 | 79 | 1012.3 |
| 20260904054704 | 80 | 155 | 7.0 | 14.0 | 0.00 | 0.00 | 0.00 | 79 | 1012.3 |
| 20260904054603 | 80 | 154 | 7.0 | 14.0 | 0.00 | 0.00 | 0.00 | 79 | 1012.3 |
| 20260904054404 | 80 | 154 | 7.0 | 14.0 | 0.00 | 0.00 | 0.00 | 79 | 1012.3 |
| 20260904054303 | 80 | 152 | 7.0 | 14.0 | 0.00 | 0.00 | 0.00 | 79 | 1012.3 |
| 20260904054104 | 80 | 151 | 7.0 | 14.0 | 0.00 | 0.00 | 0.00 | 79 | 1012.3 |
| 20260904054004 | 80 | 150 | 7.0 | 12.0 | 0.00 | 0.00 | 0.00 | 79 | 1012.3 |
| 20260904053904 | 80 | 149 | 7.0 | 12.0 | 0.00 | 0.00 | 0.00 | 79 | 1012.3 |
| 20260904053804 | 80 | 148 | 7.0 | 13.0 | 0.00 | 0.00 | 0.00 | 79 | 1012.3 |
| 20260904053704 | 80 | 148 | 7.0 | 13.0 | 0.00 | 0.00 | 0.00 | 79 | 1012.4 |
| 20260904053503 | 80 | 148 | 7.0 | 13.0 | 0.00 | 0.00 | 0.00 | 79 | 1012.3 |
| 20260904053303 | 80 | 148 | 7.0 | 13.0 | 0.00 | 0.00 | 0.00 | 79 | 1012.4 |
| 20260904053204 | 80 | 148 | 7.0 | 13.0 | 0.00 | 0.00 | 0.00 | 79 | 1012.4 |
| 20260904053104 | 80 | 149 | 7.0 | 13.0 | 0.00 | 0.00 | 0.00 | 79 | 1012.3 |
| 20260904052903 | 80 | 148 | 7.0 | 13.0 | 0.00 | 0.00 | 0.00 | 79 | 1012.3 |
| 20260904052804 | 80 | 148 | 7.0 | 13.0 | 0.00 | 0.00 | 0.00 | 79 | 1012.3 |
| 20260904052703 | 80 | 148 | 7.0 | 13.0 | 0.00 | 0.00 | 0.00 | 79 | 1012.3 |
| 20260904052604 | 80 | 146 | 7.0 | 13.0 | 0.00 | 0.00 | 0.00 | 79 | 1012.3 |
| 20260904052503 | 80 | 147 | 7.0 | 13.0 | 0.00 | 0.00 | 0.00 | 79 | 1012.3 |
| 20260904052204 | 80 | 144 | 6.0 | 11.0 | 0.00 | 0.00 | 0.00 | 78 | 1012.3 |
| 20260904052104 | 80 | 144 | 6.0 | 11.0 | 0.00 | 0.00 | 0.00 | 78 | 1012.3 |
| 20260904052004 | 80 | 144 | 6.0 | 12.0 | 0.00 | 0.00 | 0.00 | 78 | 1012.3 |
| 20260904051804 | 80 | 143 | 6.0 | 13.0 | 0.00 | 0.00 | 0.00 | 78 | 1012.3 |
| 20260904051704 | 80 | 143 | 6.0 | 13.0 | 0.00 | 0.00 | 0.00 | 78 | 1012.3 |
| 20260904051604 | 80 | 144 | 6.0 | 13.0 | 0.00 | 0.00 | 0.00 | 78 | 1012.3 |
| 20260904051504 | 80 | 145 | 6.0 | 13.0 | 0.00 | 0.00 | 0.00 | 78 | 1012.3 |
| 20260904051410 | 80 | 144 | 6.0 | 13.0 | 0.00 | 0.00 | 0.00 | 78 | 1012.3 |
| 20260904051304 | 80 | 145 | 6.0 | 13.0 | 0.00 | 0.00 | 0.00 | 78 | 1012.3 |
| 20260904051203 | 80 | 146 | 6.0 | 13.0 | 0.00 | 0.00 | 0.00 | 78 | 1012.3 |
| 20260904051104 | 80 | 146 | 6.0 | 13.0 | 0.00 | 0.00 | 0.00 | 78 | 1012.3 |
| 20260904051004 | 80 | 146 | 6.0 | 13.0 | 0.00 | 0.00 | 0.00 | 78 | 1012.3 |
| 20260904050904 | 80 | 147 | 6.0 | 13.0 | 0.00 | 0.00 | 0.00 | 78 | 1012.3 |
| 20260904050803 | 80 | 147 | 5.0 | 11.0 | 0.00 | 0.00 | 0.00 | 78 | 1012.3 |
| 20260904050704 | 80 | 146 | 5.0 | 10.0 | 0.00 | 0.00 | 0.00 | 78 | 1012.3 |
| 20260904050603 | 80 | 145 | 5.0 | 10.0 | 0.00 | 0.00 | 0.00 | 78 | 1012.3 |
| 20260904050504 | 80 | 145 | 5.0 | 10.0 | 0.00 | 0.00 | 0.00 | 78 | 1012.3 |
| 20260904050403 | 80 | 146 | 5.0 | 11.0 | 0.00 | 0.00 | 0.00 | 78 | 1012.3 |
| 20260904050304 | 80 | 146 | 5.0 | 11.0 | 0.00 | 0.00 | 0.00 | 78 | 1012.3 |
| 20260904050204 | 80 | 145 | 5.0 | 11.0 | 0.00 | 0.00 | 0.00 | 78 | 1012.2 |
| 20260904050005 | 80 | 143 | 5.0 | 12.0 | 0.00 | 0.00 | 0.00 | 77 | 1012.2 |
| 20260904045904 | 80 | 143 | 5.0 | 12.0 | 0.00 | 0.00 | 0.00 | 77 | 1012.2 |
| 20260904045804 | 80 | 143 | 5.0 | 13.0 | 0.00 | 0.00 | 0.00 | 77 | 1012.2 |
| 20260904045604 | 80 | 142 | 5.0 | 13.0 | 0.00 | 0.00 | 0.00 | 77 | 1012.2 |
| 20260904045504 | 80 | 141 | 5.0 | 13.0 | 0.00 | 0.00 | 0.00 | 77 | 1012.2 |
| 20260904045306 | 80 | 138 | 5.0 | 13.0 | 0.00 | 0.00 | 0.00 | 77 | 1012.2 |
| 20260904045104 | 80 | 139 | 5.0 | 13.0 | 0.00 | 0.00 | 0.00 | 77 | 1012.1 |
| 20260904045003 | 80 | 141 | 6.0 | 13.0 | 0.00 | 0.00 | 0.00 | 77 | 1012.1 |
| 20260904044904 | 80 | 141 | 6.0 | 13.0 | 0.00 | 0.00 | 0.00 | 77 | 1012.1 |
| 20260904044804 | 80 | 142 | 6.0 | 12.0 | 0.00 | 0.00 | 0.00 | 77 | 1012.1 |
| 20260904044704 | 80 | 142 | 6.0 | 12.0 | 0.00 | 0.00 | 0.00 | 77 | 1012.1 |
| 20260904044404 | 80 | 143 | 6.0 | 12.0 | 0.00 | 0.00 | 0.00 | 76 | 1012.1 |
| 20260904044304 | 80 | 143 | 6.0 | 12.0 | 0.00 | 0.00 | 0.00 | 76 | 1012.1 |
| 20260904044204 | 80 | 143 | 6.0 | 12.0 | 0.00 | 0.00 | 0.00 | 76 | 1012.1 |
| 20260904044004 | 80 | 142 | 6.0 | 12.0 | 0.00 | 0.00 | 0.00 | 76 | 1012.0 |
| 20260904043904 | 80 | 142 | 6.0 | 12.0 | 0.00 | 0.00 | 0.00 | 76 | 1012.1 |
| 20260904043604 | 80 | 140 | 6.0 | 12.0 | 0.00 | 0.00 | 0.00 | 76 | 1012.1 |
| 20260904043404 | 80 | 141 | 6.0 | 12.0 | 0.00 | 0.00 | 0.00 | 76 | 1012.1 |
| 20260904043304 | 80 | 140 | 6.0 | 12.0 | 0.00 | 0.00 | 0.00 | 76 | 1012.1 |
| 20260904043204 | 80 | 141 | 6.0 | 12.0 | 0.00 | 0.00 | 0.00 | 76 | 1012.1 |
| 20260904043104 | 80 | 140 | 7.0 | 15.0 | 0.00 | 0.00 | 0.00 | 76 | 1012.1 |
| 20260904043004 | 80 | 139 | 6.0 | 15.0 | 0.00 | 0.00 | 0.00 | 76 | 1012.1 |
| 20260904042705 | 80 | 140 | 7.0 | 15.0 | 0.00 | 0.00 | 0.00 | 75 | 1012.1 |
| 20260904042603 | 80 | 140 | 7.0 | 15.0 | 0.00 | 0.00 | 0.00 | 75 | 1012.1 |
| 20260904042505 | 80 | 140 | 7.0 | 15.0 | 0.00 | 0.00 | 0.00 | 75 | 1012.1 |
| 20260904042404 | 80 | 139 | 7.0 | 15.0 | 0.00 | 0.00 | 0.00 | 75 | 1012.0 |
| 20260904042204 | 80 | 140 | 6.0 | 15.0 | 0.00 | 0.00 | 0.00 | 75 | 1012.0 |
| 20260904042104 | 80 | 141 | 6.0 | 12.0 | 0.00 | 0.00 | 0.00 | 75 | 1012.0 |
| 20260904041904 | 80 | 143 | 7.0 | 12.0 | 0.00 | 0.00 | 0.00 | 75 | 1012.0 |
| 20260904041805 | 80 | 144 | 7.0 | 12.0 | 0.00 | 0.00 | 0.00 | 75 | 1012.0 |
| 20260904041603 | 80 | 146 | 6.0 | 12.0 | 0.00 | 0.00 | 0.00 | 74 | 1012.0 |
| 20260904041504 | 80 | 146 | 6.0 | 12.0 | 0.00 | 0.00 | 0.00 | 74 | 1012.0 |
| 20260904041404 | 80 | 143 | 6.0 | 12.0 | 0.00 | 0.00 | 0.00 | 74 | 1012.0 |
| 20260904041104 | 80 | 143 | 6.0 | 12.0 | 0.00 | 0.00 | 0.00 | 74 | 1012.0 |
| 20260904041004 | 80 | 143 | 6.0 | 12.0 | 0.00 | 0.00 | 0.00 | 74 | 1012.1 |
| 20260904040904 | 80 | 141 | 6.0 | 12.0 | 0.00 | 0.00 | 0.00 | 74 | 1012.1 |
| 20260904040804 | 80 | 139 | 6.0 | 12.0 | 0.00 | 0.00 | 0.00 | 74 | 1012.0 |
| 20260904040704 | 80 | 138 | 6.0 | 13.0 | 0.00 | 0.00 | 0.00 | 74 | 1012.1 |
| 20260904040603 | 80 | 136 | 6.0 | 13.0 | 0.00 | 0.00 | 0.00 | 74 | 1012.1 |
| 20260904040403 | 80 | 139 | 6.0 | 13.0 | 0.00 | 0.00 | 0.00 | 74 | 1012.0 |
| 20260904040304 | 80 | 139 | 5.0 | 13.0 | 0.00 | 0.00 | 0.00 | 73 | 1012.1 |
| 20260904040203 | 80 | 138 | 5.0 | 13.0 | 0.00 | 0.00 | 0.00 | 73 | 1012.1 |
| 20260904040104 | 80 | 139 | 5.0 | 13.0 | 0.00 | 0.00 | 0.00 | 73 | 1012.0 |
| 20260904035904 | 80 | 138 | 5.0 | 13.0 | 0.00 | 0.00 | 0.00 | 73 | 1012.0 |
| 20260904035803 | 80 | 140 | 5.0 | 13.0 | 0.00 | 0.00 | 0.00 | 73 | 1012.0 |
| 20260904035704 | 80 | 139 | 5.0 | 13.0 | 0.00 | 0.00 | 0.00 | 73 | 1012.0 |
| 20260904035603 | 80 | 141 | 5.0 | 13.0 | 0.00 | 0.00 | 0.00 | 73 | 1012.1 |
| 20260904035403 | 80 | 140 | 6.0 | 10.0 | 0.00 | 0.00 | 0.00 | 73 | 1012.1 |
| 20260904035203 | 80 | 140 | 6.0 | 10.0 | 0.00 | 0.00 | 0.00 | 73 | 1012.1 |
| 20260904035103 | 80 | 140 | 6.0 | 11.0 | 0.00 | 0.00 | 0.00 | 73 | 1012.1 |
| 20260904034903 | 80 | 141 | 7.0 | 12.0 | 0.00 | 0.00 | 0.00 | 73 | 1012.1 |
| 20260904034804 | 81 | 141 | 7.0 | 12.0 | 0.00 | 0.00 | 0.00 | 73 | 1012.1 |
| 20260904034703 | 81 | 141 | 7.0 | 12.0 | 0.00 | 0.00 | 0.00 | 72 | 1012.1 |
| 20260904034604 | 81 | 141 | 7.0 | 12.0 | 0.00 | 0.00 | 0.00 | 72 | 1012.2 |
| 20260904034504 | 81 | 141 | 7.0 | 13.0 | 0.00 | 0.00 | 0.00 | 72 | 1012.1 |
| 20260904034403 | 81 | 140 | 7.0 | 13.0 | 0.00 | 0.00 | 0.00 | 72 | 1012.2 |
| 20260904034303 | 81 | 140 | 7.0 | 13.0 | 0.00 | 0.00 | 0.00 | 72 | 1012.1 |
| 20260904034104 | 81 | 139 | 7.0 | 13.0 | 0.00 | 0.00 | 0.00 | 72 | 1012.1 |
| 20260904034004 | 81 | 138 | 6.0 | 14.0 | 0.00 | 0.00 | 0.00 | 72 | 1012.1 |
| 20260904033904 | 81 | 137 | 6.0 | 14.0 | 0.00 | 0.00 | 0.00 | 72 | 1012.1 |
| 20260904033803 | 81 | 137 | 7.0 | 14.0 | 0.00 | 0.00 | 0.00 | 72 | 1012.1 |
| 20260904033503 | 81 | 139 | 6.0 | 14.0 | 0.00 | 0.00 | 0.00 | 72 | 1012.1 |
| 20260904033404 | 81 | 140 | 6.0 | 14.0 | 0.00 | 0.00 | 0.00 | 72 | 1012.1 |
| 20260904033303 | 81 | 140 | 6.0 | 14.0 | 0.00 | 0.00 | 0.00 | 71 | 1012.1 |
| 20260904033204 | 81 | 139 | 6.0 | 14.0 | 0.00 | 0.00 | 0.00 | 71 | 1012.0 |
| 20260904032903 | 81 | 145 | 7.0 | 13.0 | 0.00 | 0.00 | 0.00 | 71 | 1012.1 |
| 20260904032804 | 81 | 147 | 7.0 | 13.0 | 0.00 | 0.00 | 0.00 | 71 | 1012.0 |
| 20260904032703 | 81 | 146 | 6.0 | 13.0 | 0.00 | 0.00 | 0.00 | 71 | 1012.0 |
| 20260904032604 | 81 | 147 | 7.0 | 13.0 | 0.00 | 0.00 | 0.00 | 71 | 1012.0 |
| 20260904032504 | 81 | 148 | 7.0 | 13.0 | 0.00 | 0.00 | 0.00 | 71 | 1012.0 |
| 20260904032403 | 81 | 148 | 7.0 | 15.0 | 0.00 | 0.00 | 0.00 | 71 | 1012.0 |
| 20260904032305 | 81 | 147 | 7.0 | 15.0 | 0.00 | 0.00 | 0.00 | 71 | 1011.9 |
| 20260904032204 | 81 | 148 | 7.0 | 15.0 | 0.00 | 0.00 | 0.00 | 71 | 1012.0 |
| 20260904032103 | 81 | 146 | 7.0 | 15.0 | 0.00 | 0.00 | 0.00 | 71 | 1012.0 |
| 20260904032004 | 81 | 146 | 7.0 | 15.0 | 0.00 | 0.00 | 0.00 | 71 | 1012.0 |
| 20260904031904 | 81 | 145 | 7.0 | 15.0 | 0.00 | 0.00 | 0.00 | 70 | 1012.0 |
| 20260904031804 | 81 | 144 | 7.0 | 15.0 | 0.00 | 0.00 | 0.00 | 70 | 1012.0 |
| 20260904031704 | 81 | 145 | 6.0 | 15.0 | 0.00 | 0.00 | 0.00 | 70 | 1011.9 |
| 20260904031604 | 81 | 145 | 6.0 | 15.0 | 0.00 | 0.00 | 0.00 | 70 | 1012.0 |
| 20260904031503 | 81 | 143 | 6.0 | 15.0 | 0.00 | 0.00 | 0.00 | 70 | 1012.0 |
| 20260904031404 | 81 | 142 | 6.0 | 12.0 | 0.00 | 0.00 | 0.00 | 70 | 1012.0 |
| 20260904031303 | 81 | 142 | 6.0 | 12.0 | 0.00 | 0.00 | 0.00 | 70 | 1012.0 |
| 20260904031204 | 81 | 142 | 6.0 | 12.0 | 0.00 | 0.00 | 0.00 | 70 | 1012.0 |
| 20260904031104 | 81 | 143 | 6.0 | 12.0 | 0.00 | 0.00 | 0.00 | 70 | 1012.0 |
| 20260904030905 | 82 | 146 | 7.0 | 14.0 | 0.00 | 0.00 | 0.00 | 69 | 1011.9 |
| 20260904030804 | 82 | 144 | 7.0 | 14.0 | 0.00 | 0.00 | 0.00 | 69 | 1011.9 |
| 20260904030703 | 82 | 144 | 7.0 | 14.0 | 0.00 | 0.00 | 0.00 | 69 | 1011.8 |
| 20260904030606 | 82 | 143 | 7.0 | 14.0 | 0.00 | 0.00 | 0.00 | 69 | 1011.8 |
| 20260904030405 | 82 | 143 | 7.0 | 14.0 | 0.00 | 0.00 | 0.00 | 69 | 1011.8 |
| 20260904030306 | 82 | 144 | 7.0 | 14.0 | 0.00 | 0.00 | 0.00 | 69 | 1011.7 |
| 20260904030106 | 82 | 145 | 6.0 | 14.0 | 0.00 | 0.00 | 0.00 | 69 | 1011.7 |
| 20260904030005 | 82 | 143 | 6.0 | 14.0 | 0.00 | 0.00 | 0.00 | 69 | 1011.7 |
| 20260904025906 | 82 | 139 | 6.0 | 14.0 | 0.00 | 0.00 | 0.00 | 69 | 1011.7 |
| 20260904025805 | 82 | 139 | 6.0 | 14.0 | 0.00 | 0.00 | 0.00 | 69 | 1011.7 |
| 20260904025706 | 82 | 138 | 6.0 | 14.0 | 0.00 | 0.00 | 0.00 | 69 | 1011.6 |
| 20260904025605 | 82 | 139 | 6.0 | 14.0 | 0.00 | 0.00 | 0.00 | 69 | 1011.7 |
| 20260904025406 | 82 | 139 | 6.0 | 12.0 | 0.00 | 0.00 | 0.00 | 68 | 1011.7 |
| 20260904025105 | 82 | 136 | 7.0 | 13.0 | 0.00 | 0.00 | 0.00 | 68 | 1011.6 |
| 20260904025006 | 82 | 136 | 7.0 | 13.0 | 0.00 | 0.00 | 0.00 | 68 | 1011.7 |
| 20260904024905 | 82 | 138 | 7.0 | 13.0 | 0.00 | 0.00 | 0.00 | 68 | 1011.6 |
| 20260904024606 | 82 | 139 | 7.0 | 13.0 | 0.00 | 0.00 | 0.00 | 68 | 1011.6 |
| 20260904024406 | 82 | 139 | 7.0 | 13.0 | 0.00 | 0.00 | 0.00 | 68 | 1011.5 |
| 20260904024305 | 82 | 139 | 7.0 | 13.0 | 0.00 | 0.00 | 0.00 | 68 | 1011.5 |
| 20260904024206 | 82 | 138 | 7.0 | 15.0 | 0.00 | 0.00 | 0.00 | 68 | 1011.5 |
| 20260904024106 | 82 | 139 | 7.0 | 15.0 | 0.00 | 0.00 | 0.00 | 67 | 1011.4 |
| 20260904024006 | 82 | 140 | 7.0 | 15.0 | 0.00 | 0.00 | 0.00 | 67 | 1011.4 |
| 20260904023906 | 82 | 141 | 6.0 | 15.0 | 0.00 | 0.00 | 0.00 | 67 | 1011.4 |
| 20260904023706 | 82 | 141 | 6.0 | 15.0 | 0.00 | 0.00 | 0.00 | 67 | 1011.4 |
| 20260904023606 | 82 | 140 | 6.0 | 15.0 | 0.00 | 0.00 | 0.00 | 67 | 1011.4 |
| 20260904023505 | 82 | 141 | 6.0 | 15.0 | 0.00 | 0.00 | 0.00 | 67 | 1011.4 |
| 20260904023406 | 82 | 140 | 6.0 | 15.0 | 0.00 | 0.00 | 0.00 | 67 | 1011.4 |
| 20260904023206 | 82 | 142 | 6.0 | 12.0 | 0.00 | 0.00 | 0.00 | 67 | 1011.4 |
| 20260904023106 | 82 | 142 | 6.0 | 12.0 | 0.00 | 0.00 | 0.00 | 67 | 1011.4 |
| 20260904023006 | 82 | 142 | 6.0 | 12.0 | 0.00 | 0.00 | 0.00 | 67 | 1011.3 |
| 20260904022905 | 82 | 141 | 6.0 | 12.0 | 0.00 | 0.00 | 0.00 | 67 | 1011.4 |
| 20260904022806 | 82 | 141 | 6.0 | 12.0 | 0.00 | 0.00 | 0.00 | 67 | 1011.4 |
| 20260904022706 | 82 | 141 | 6.0 | 12.0 | 0.00 | 0.00 | 0.00 | 67 | 1011.4 |
| 20260904022605 | 82 | 141 | 6.0 | 12.0 | 0.00 | 0.00 | 0.00 | 67 | 1011.4 |
| 20260904022506 | 82 | 140 | 6.0 | 12.0 | 0.00 | 0.00 | 0.00 | 67 | 1011.3 |
| 20260904022406 | 82 | 140 | 6.0 | 13.0 | 0.00 | 0.00 | 0.00 | 67 | 1011.3 |
| 20260904022206 | 83 | 140 | 6.0 | 13.0 | 0.00 | 0.00 | 0.00 | 67 | 1011.3 |
| 20260904022105 | 83 | 141 | 6.0 | 14.0 | 0.00 | 0.00 | 0.00 | 67 | 1011.3 |
| 20260904022006 | 83 | 142 | 7.0 | 14.0 | 0.00 | 0.00 | 0.00 | 67 | 1011.3 |
| 20260904021905 | 83 | 141 | 7.0 | 14.0 | 0.00 | 0.00 | 0.00 | 67 | 1011.3 |
| 20260904021805 | 83 | 141 | 7.0 | 14.0 | 0.00 | 0.00 | 0.00 | 67 | 1011.3 |
| 20260904021706 | 83 | 142 | 7.0 | 14.0 | 0.00 | 0.00 | 0.00 | 67 | 1011.3 |
| 20260904021605 | 83 | 143 | 7.0 | 14.0 | 0.00 | 0.00 | 0.00 | 67 | 1011.2 |
| 20260904021506 | 83 | 144 | 7.0 | 14.0 | 0.00 | 0.00 | 0.00 | 67 | 1011.2 |
| 20260904021405 | 83 | 145 | 7.0 | 14.0 | 0.00 | 0.00 | 0.00 | 67 | 1011.3 |
| 20260904021306 | 83 | 145 | 7.0 | 14.0 | 0.00 | 0.00 | 0.00 | 67 | 1011.3 |
| 20260904021206 | 83 | 147 | 7.0 | 14.0 | 0.00 | 0.00 | 0.00 | 67 | 1011.3 |
| 20260904021105 | 83 | 146 | 7.0 | 15.0 | 0.00 | 0.00 | 0.00 | 67 | 1011.3 |
| 20260904021006 | 83 | 146 | 8.0 | 15.0 | 0.00 | 0.00 | 0.00 | 67 | 1011.2 |
| 20260904020905 | 83 | 148 | 8.0 | 16.0 | 0.00 | 0.00 | 0.00 | 67 | 1011.2 |
| 20260904020806 | 83 | 147 | 8.0 | 16.0 | 0.00 | 0.00 | 0.00 | 67 | 1011.2 |
| 20260904020705 | 83 | 148 | 8.0 | 16.0 | 0.00 | 0.00 | 0.00 | 67 | 1011.2 |
| 20260904020606 | 83 | 146 | 8.0 | 16.0 | 0.00 | 0.00 | 0.00 | 67 | 1011.1 |
| 20260904020505 | 83 | 145 | 8.0 | 16.0 | 0.00 | 0.00 | 0.00 | 67 | 1011.1 |
| 20260904020406 | 83 | 143 | 8.0 | 16.0 | 0.00 | 0.00 | 0.00 | 67 | 1011.1 |
| 20260904020305 | 83 | 142 | 8.0 | 16.0 | 0.00 | 0.00 | 0.00 | 67 | 1011.1 |
| 20260904020206 | 83 | 140 | 8.0 | 16.0 | 0.00 | 0.00 | 0.00 | 67 | 1011.1 |
| 20260904020106 | 83 | 139 | 8.0 | 16.0 | 0.00 | 0.00 | 0.00 | 67 | 1011.0 |
| 20260904020006 | 83 | 139 | 7.0 | 16.0 | 0.00 | 0.00 | 0.00 | 67 | 1011.0 |
| 20260904015905 | 83 | 138 | 7.0 | 16.0 | 0.00 | 0.00 | 0.00 | 68 | 1011.0 |
| 20260904015806 | 83 | 137 | 7.0 | 14.0 | 0.00 | 0.00 | 0.00 | 68 | 1010.9 |
| 20260904015706 | 83 | 136 | 7.0 | 14.0 | 0.00 | 0.00 | 0.00 | 68 | 1010.9 |
| 20260904015605 | 83 | 137 | 7.0 | 14.0 | 0.00 | 0.00 | 0.00 | 68 | 1010.9 |
| 20260904015506 | 83 | 139 | 7.0 | 14.0 | 0.00 | 0.00 | 0.00 | 68 | 1010.9 |
| 20260904015406 | 83 | 141 | 7.0 | 14.0 | 0.00 | 0.00 | 0.00 | 68 | 1010.9 |
| 20260904015205 | 83 | 140 | 8.0 | 14.0 | 0.00 | 0.00 | 0.00 | 68 | 1010.9 |
| 20260904015106 | 83 | 141 | 8.0 | 14.0 | 0.00 | 0.00 | 0.00 | 68 | 1011.0 |
| 20260904015006 | 83 | 140 | 7.0 | 14.0 | 0.00 | 0.00 | 0.00 | 68 | 1011.0 |
| 20260904014905 | 83 | 139 | 7.0 | 14.0 | 0.00 | 0.00 | 0.00 | 68 | 1010.9 |
| 20260904014807 | 83 | 139 | 8.0 | 14.0 | 0.00 | 0.00 | 0.00 | 68 | 1011.0 |
| 20260904014606 | 84 | 138 | 7.0 | 14.0 | 0.00 | 0.00 | 0.00 | 68 | 1010.9 |
| 20260904014506 | 84 | 136 | 7.0 | 13.0 | 0.00 | 0.00 | 0.00 | 68 | 1011.0 |
| 20260904014307 | 84 | 134 | 7.0 | 14.0 | 0.00 | 0.00 | 0.00 | 68 | 1011.0 |
| 20260904014205 | 84 | 134 | 7.0 | 14.0 | 0.00 | 0.00 | 0.00 | 68 | 1011.0 |
| 20260904014106 | 84 | 131 | 7.0 | 14.0 | 0.00 | 0.00 | 0.00 | 68 | 1011.0 |
| 20260904013805 | 84 | 128 | 7.0 | 14.0 | 0.00 | 0.00 | 0.00 | 68 | 1010.9 |
| 20260904013705 | 84 | 128 | 7.0 | 14.0 | 0.00 | 0.00 | 0.00 | 68 | 1010.9 |
| 20260904013505 | 84 | 127 | 7.0 | 17.0 | 0.00 | 0.00 | 0.00 | 68 | 1010.9 |
| 20260904013406 | 84 | 128 | 8.0 | 17.0 | 0.00 | 0.00 | 0.00 | 68 | 1010.9 |
| 20260904013305 | 84 | 129 | 8.0 | 17.0 | 0.00 | 0.00 | 0.00 | 68 | 1010.9 |
| 20260904013206 | 84 | 129 | 8.0 | 17.0 | 0.00 | 0.00 | 0.00 | 68 | 1010.9 |
| 20260904013105 | 84 | 129 | 9.0 | 17.0 | 0.00 | 0.00 | 0.00 | 68 | 1010.9 |